| time (UTC) | temp F | wind direction | speed knots | gust knots | rain 1hr in | rain 24hr in | rain mn in | humidity % | barometer mb |
| 20260506143521 | 51 | 191 | 1.7 | 2.6 | 0.00 | 0.00 | 0.00 | 77 | 1012.6 |
| 20260506143428 | 51 | 191 | 0.9 | 2.6 | 0.00 | 0.00 | 0.00 | 77 | 1012.6 |
| 20260506143324 | 51 | 191 | 0.9 | 4.3 | 0.00 | 0.00 | 0.00 | 77 | 1012.5 |
| 20260506143231 | 51 | 191 | 0.9 | 4.3 | 0.00 | 0.00 | 0.00 | 77 | 1012.5 |
| 20260506143129 | 51 | 191 | 1.7 | 4.3 | 0.00 | 0.00 | 0.00 | 77 | 1012.4 |
| 20260506143040 | 51 | 191 | 1.7 | 4.3 | 0.00 | 0.00 | 0.00 | 77 | 1012.5 |
| 20260506142935 | 51 | 191 | 0.9 | 4.3 | 0.00 | 0.00 | 0.00 | 77 | 1012.4 |
| 20260506142839 | 51 | 191 | 0.9 | 4.3 | 0.00 | 0.00 | 0.00 | 77 | 1012.4 |
| 20260506142736 | 51 | 191 | 0.9 | 4.3 | 0.00 | 0.00 | 0.00 | 77 | 1012.4 |
| 20260506142620 | 51 | 191 | 1.7 | 4.3 | 0.00 | 0.00 | 0.00 | 77 | 1012.4 |
| 20260506142537 | 51 | 191 | 1.7 | 4.3 | 0.00 | 0.00 | 0.00 | 77 | 1012.4 |
| 20260506142423 | 50 | 200 | 1.7 | 3.5 | 0.00 | 0.00 | 0.00 | 77 | 1012.4 |
| 20260506142321 | 50 | 200 | 1.7 | 3.5 | 0.00 | 0.00 | 0.00 | 77 | 1012.4 |
| 20260506142232 | 50 | 196 | 0.9 | 2.6 | 0.00 | 0.00 | 0.00 | 76 | 1012.4 |
| 20260506142128 | 50 | 196 | 0.9 | 2.6 | 0.00 | 0.00 | 0.00 | 76 | 1012.4 |
| 20260506142025 | 50 | 196 | 0.9 | 2.6 | 0.00 | 0.00 | 0.00 | 76 | 1012.4 |
| 20260506141913 | 50 | 196 | 1.7 | 2.6 | 0.00 | 0.00 | 0.00 | 76 | 1012.4 |
| 20260506141830 | 50 | 196 | 0.9 | 2.6 | 0.00 | 0.00 | 0.00 | 76 | 1012.4 |
| 20260506141736 | 50 | 196 | 0.9 | 2.6 | 0.00 | 0.00 | 0.00 | 76 | 1012.4 |
| 20260506141637 | 50 | 196 | 0.0 | 1.7 | 0.00 | 0.00 | 0.00 | 76 | 1012.4 |
| 20260506141523 | 50 | 196 | 0.0 | 1.7 | 0.00 | 0.00 | 0.00 | 76 | 1012.4 |
| 20260506141418 | 50 | 196 | 0.0 | 1.7 | 0.00 | 0.00 | 0.00 | 76 | 1012.4 |
| 20260506141315 | 50 | 196 | 0.0 | 1.7 | 0.00 | 0.00 | 0.00 | 76 | 1012.4 |
| 20260506141222 | 50 | 196 | 0.0 | 1.7 | 0.00 | 0.00 | 0.00 | 76 | 1012.4 |
| 20260506141118 | 50 | 196 | 0.9 | 1.7 | 0.00 | 0.00 | 0.00 | 76 | 1012.4 |
| 20260506141024 | 50 | 196 | 0.0 | 1.7 | 0.00 | 0.00 | 0.00 | 76 | 1012.4 |
| 20260506140926 | 50 | 196 | 0.0 | 1.7 | 0.00 | 0.00 | 0.00 | 76 | 1012.4 |
| 20260506140821 | 50 | 196 | 0.0 | 1.7 | 0.00 | 0.00 | 0.00 | 76 | 1012.4 |
| 20260506140728 | 50 | 196 | 0.0 | 2.6 | 0.00 | 0.00 | 0.00 | 76 | 1012.4 |
| 20260506140624 | 50 | 196 | 0.9 | 2.6 | 0.00 | 0.00 | 0.00 | 76 | 1012.4 |
| 20260506140528 | 50 | 196 | 0.0 | 2.6 | 0.00 | 0.00 | 0.00 | 76 | 1012.4 |
| 20260506140426 | 50 | 196 | 0.0 | 3.5 | 0.00 | 0.00 | 0.00 | 76 | 1012.4 |
| 20260506140336 | 50 | 196 | 0.9 | 3.5 | 0.00 | 0.00 | 0.00 | 76 | 1012.4 |
| 20260506140230 | 50 | 196 | 0.9 | 3.5 | 0.00 | 0.00 | 0.00 | 76 | 1012.3 |
| 20260506140125 | 50 | 196 | 0.9 | 3.5 | 0.00 | 0.00 | 0.00 | 76 | 1012.3 |
| 20260506140032 | 50 | 196 | 0.9 | 3.5 | 0.00 | 0.00 | 0.00 | 76 | 1012.3 |
| 20260506135929 | 50 | 196 | 0.9 | 4.3 | 0.00 | 0.00 | 0.00 | 76 | 1012.3 |
| 20260506135836 | 50 | 196 | 1.7 | 7.0 | 0.00 | 0.00 | 0.00 | 76 | 1012.2 |
| 20260506135715 | 50 | 196 | 1.7 | 7.0 | 0.00 | 0.00 | 0.00 | 76 | 1012.1 |
| 20260506135614 | 50 | 196 | 0.9 | 7.0 | 0.00 | 0.00 | 0.00 | 76 | 1012.1 |
| 20260506135521 | 50 | 196 | 0.9 | 7.0 | 0.00 | 0.00 | 0.00 | 76 | 1012.1 |
| 20260506135418 | 50 | 196 | 1.7 | 7.0 | 0.00 | 0.00 | 0.00 | 76 | 1012.1 |
| 20260506135321 | 50 | 194 | 1.7 | 7.8 | 0.00 | 0.00 | 0.00 | 76 | 1012.1 |
| 20260506135236 | 50 | 195 | 2.6 | 7.8 | 0.00 | 0.00 | 0.00 | 76 | 1012.0 |
| 20260506135120 | 50 | 182 | 3.5 | 7.8 | 0.00 | 0.00 | 0.00 | 76 | 1012.0 |
| 20260506135024 | 50 | 183 | 4.3 | 7.8 | 0.00 | 0.00 | 0.00 | 76 | 1011.9 |
| 20260506134925 | 50 | 157 | 3.5 | 7.8 | 0.00 | 0.00 | 0.00 | 76 | 1011.9 |
| 20260506134820 | 50 | 178 | 3.5 | 7.8 | 0.00 | 0.00 | 0.00 | 76 | 1011.9 |
| 20260506134728 | 50 | 180 | 3.5 | 7.8 | 0.00 | 0.00 | 0.00 | 76 | 1011.9 |
| 20260506134624 | 50 | 173 | 3.5 | 7.8 | 0.00 | 0.00 | 0.00 | 76 | 1011.9 |
| 20260506134529 | 50 | 156 | 4.3 | 9.6 | 0.00 | 0.00 | 0.00 | 76 | 1011.9 |
| 20260506134426 | 50 | 183 | 5.2 | 9.6 | 0.00 | 0.00 | 0.00 | 76 | 1011.9 |
| 20260506134331 | 50 | 170 | 5.2 | 9.6 | 0.00 | 0.00 | 0.00 | 76 | 1011.9 |
| 20260506134231 | 50 | 151 | 5.2 | 9.6 | 0.00 | 0.00 | 0.00 | 76 | 1011.9 |
| 20260506134131 | 50 | 150 | 6.1 | 9.6 | 0.00 | 0.00 | 0.00 | 76 | 1011.8 |
| 20260506134035 | 50 | 158 | 6.1 | 9.6 | 0.00 | 0.00 | 0.00 | 76 | 1011.9 |
| 20260506133932 | 50 | 156 | 6.1 | 9.6 | 0.00 | 0.00 | 0.00 | 76 | 1011.8 |
| 20260506133838 | 50 | 173 | 6.1 | 9.6 | 0.00 | 0.00 | 0.00 | 76 | 1011.9 |
| 20260506133716 | 50 | 152 | 5.2 | 9.6 | 0.00 | 0.00 | 0.00 | 76 | 1011.8 |
| 20260506133616 | 50 | 160 | 5.2 | 7.8 | 0.00 | 0.00 | 0.00 | 76 | 1011.8 |
| 20260506133523 | 50 | 161 | 5.2 | 7.8 | 0.00 | 0.00 | 0.00 | 76 | 1011.8 |
| 20260506133440 | 50 | 169 | 4.3 | 7.8 | 0.00 | 0.00 | 0.00 | 76 | 1011.9 |
| 20260506133325 | 50 | 163 | 4.3 | 7.8 | 0.00 | 0.00 | 0.00 | 76 | 1011.9 |
| 20260506133221 | 50 | 158 | 5.2 | 7.8 | 0.00 | 0.00 | 0.00 | 76 | 1011.9 |
| 20260506133130 | 50 | 159 | 5.2 | 7.8 | 0.00 | 0.00 | 0.00 | 76 | 1011.9 |
| 20260506133044 | 50 | 158 | 5.2 | 7.8 | 0.00 | 0.00 | 0.00 | 76 | 1011.9 |
| 20260506132928 | 50 | 162 | 4.3 | 7.8 | 0.00 | 0.00 | 0.00 | 76 | 1011.9 |
| 20260506132837 | 50 | 173 | 4.3 | 7.8 | 0.00 | 0.00 | 0.00 | 76 | 1011.9 |
| 20260506132732 | 50 | 154 | 5.2 | 7.8 | 0.00 | 0.00 | 0.00 | 76 | 1011.8 |
| 20260506132638 | 50 | 127 | 5.2 | 7.8 | 0.00 | 0.00 | 0.00 | 76 | 1011.8 |
| 20260506132513 | 50 | 175 | 4.3 | 7.8 | 0.00 | 0.00 | 0.00 | 76 | 1011.8 |
| 20260506132430 | 50 | 159 | 4.3 | 7.8 | 0.00 | 0.00 | 0.00 | 76 | 1011.8 |
| 20260506132336 | 50 | 162 | 4.3 | 7.8 | 0.00 | 0.00 | 0.00 | 76 | 1011.8 |
| 20260506132218 | 50 | 155 | 3.5 | 7.8 | 0.00 | 0.00 | 0.00 | 76 | 1011.8 |
| 20260506132113 | 50 | 143 | 4.3 | 7.8 | 0.00 | 0.00 | 0.00 | 76 | 1011.7 |
| 20260506132019 | 50 | 125 | 4.3 | 7.0 | 0.00 | 0.00 | 0.00 | 76 | 1011.7 |
| 20260506131915 | 50 | 150 | 3.5 | 7.0 | 0.00 | 0.00 | 0.00 | 76 | 1011.8 |
| 20260506131822 | 50 | 134 | 3.5 | 9.6 | 0.00 | 0.00 | 0.00 | 76 | 1011.7 |
| 20260506131722 | 50 | 148 | 4.3 | 9.6 | 0.00 | 0.00 | 0.00 | 76 | 1011.8 |
| 20260506131618 | 50 | 159 | 4.3 | 9.6 | 0.00 | 0.00 | 0.00 | 76 | 1011.8 |
| 20260506131548 | 50 | 149 | 3.5 | 9.6 | 0.00 | 0.00 | 0.00 | 76 | 1011.8 |
| 20260506131432 | 50 | 150 | 3.5 | 9.6 | 0.00 | 0.00 | 0.00 | 76 | 1011.7 |
| 20260506131330 | 50 | 163 | 2.6 | 9.6 | 0.00 | 0.00 | 0.00 | 76 | 1011.8 |
| 20260506131255 | 50 | 170 | 2.6 | 9.6 | 0.00 | 0.00 | 0.00 | 76 | 1011.7 |
| 20260506131133 | 50 | 170 | 4.3 | 9.6 | 0.00 | 0.00 | 0.00 | 76 | 1011.7 |
| 20260506131039 | 50 | 151 | 4.3 | 9.6 | 0.00 | 0.00 | 0.00 | 76 | 1011.7 |
| 20260506130937 | 50 | 160 | 4.3 | 8.7 | 0.00 | 0.00 | 0.00 | 76 | 1011.7 |
| 20260506130816 | 50 | 166 | 4.3 | 8.7 | 0.00 | 0.00 | 0.00 | 76 | 1011.7 |
| 20260506130725 | 50 | 157 | 4.3 | 8.7 | 0.00 | 0.00 | 0.00 | 76 | 1011.6 |
| 20260506130621 | 50 | 150 | 3.5 | 8.7 | 0.00 | 0.00 | 0.00 | 76 | 1011.6 |
| 20260506130547 | 50 | 146 | 4.3 | 8.7 | 0.00 | 0.00 | 0.00 | 76 | 1011.6 |
| 20260506130422 | 50 | 149 | 4.3 | 8.7 | 0.00 | 0.00 | 0.00 | 76 | 1011.6 |
| 20260506130328 | 50 | 144 | 4.3 | 8.7 | 0.00 | 0.00 | 0.00 | 76 | 1011.6 |
| 20260506130225 | 50 | 152 | 2.6 | 8.7 | 0.00 | 0.00 | 0.00 | 76 | 1011.6 |
| 20260506130137 | 50 | 163 | 3.5 | 8.7 | 0.00 | 0.00 | 0.00 | 76 | 1011.6 |
| 20260506130049 | 50 | 150 | 4.3 | 8.7 | 0.00 | 0.00 | 0.00 | 77 | 1011.6 |
| 20260506125932 | 50 | 145 | 4.3 | 8.7 | 0.00 | 0.00 | 0.00 | 76 | 1011.5 |
| 20260506125828 | 50 | 147 | 4.3 | 8.7 | 0.00 | 0.00 | 0.00 | 76 | 1011.5 |
| 20260506125734 | 50 | 145 | 3.5 | 8.7 | 0.00 | 0.00 | 0.00 | 76 | 1011.5 |
| 20260506125654 | 50 | 155 | 2.6 | 8.7 | 0.00 | 0.00 | 0.00 | 76 | 1011.4 |
| 20260506125535 | 50 | 157 | 3.5 | 8.7 | 0.00 | 0.00 | 0.00 | 76 | 1011.5 |
| 20260506125417 | 50 | 172 | 5.2 | 9.6 | 0.00 | 0.00 | 0.00 | 76 | 1011.4 |
| 20260506125316 | 50 | 136 | 5.2 | 9.6 | 0.00 | 0.00 | 0.00 | 76 | 1011.4 |
| 20260506125223 | 50 | 144 | 5.2 | 9.6 | 0.00 | 0.00 | 0.00 | 76 | 1011.4 |
| 20260506125119 | 50 | 160 | 5.2 | 9.6 | 0.00 | 0.00 | 0.00 | 77 | 1011.4 |
| 20260506125024 | 50 | 149 | 5.2 | 9.6 | 0.00 | 0.00 | 0.00 | 77 | 1011.4 |
| 20260506124920 | 50 | 151 | 5.2 | 9.6 | 0.00 | 0.00 | 0.00 | 77 | 1011.4 |
| 20260506124817 | 50 | 144 | 5.2 | 9.6 | 0.00 | 0.00 | 0.00 | 77 | 1011.4 |
| 20260506124730 | 50 | 156 | 5.2 | 9.6 | 0.00 | 0.00 | 0.00 | 77 | 1011.4 |
| 20260506124625 | 50 | 140 | 5.2 | 9.6 | 0.00 | 0.00 | 0.00 | 77 | 1011.4 |
| 20260506124532 | 50 | 152 | 6.1 | 9.6 | 0.00 | 0.00 | 0.00 | 77 | 1011.4 |
| 20260506124428 | 50 | 150 | 5.2 | 9.6 | 0.00 | 0.00 | 0.00 | 77 | 1011.4 |
| 20260506124333 | 50 | 162 | 4.3 | 7.8 | 0.00 | 0.00 | 0.00 | 77 | 1011.4 |
| 20260506124240 | 50 | 150 | 4.3 | 7.8 | 0.00 | 0.00 | 0.00 | 77 | 1011.4 |
| 20260506124115 | 51 | 152 | 5.2 | 7.8 | 0.00 | 0.00 | 0.00 | 77 | 1011.4 |
| 20260506124024 | 51 | 150 | 5.2 | 7.8 | 0.00 | 0.00 | 0.00 | 77 | 1011.4 |
| 20260506123940 | 51 | 160 | 4.3 | 7.8 | 0.00 | 0.00 | 0.00 | 77 | 1011.4 |
| 20260506123825 | 51 | 158 | 4.3 | 7.8 | 0.00 | 0.00 | 0.00 | 77 | 1011.4 |
| 20260506123722 | 51 | 150 | 4.3 | 7.8 | 0.00 | 0.00 | 0.00 | 77 | 1011.4 |
| 20260506123651 | 51 | 170 | 4.3 | 7.0 | 0.00 | 0.00 | 0.00 | 77 | 1011.4 |
| 20260506123523 | 51 | 165 | 4.3 | 7.0 | 0.00 | 0.00 | 0.00 | 77 | 1011.4 |
| 20260506123450 | 51 | 153 | 4.3 | 7.0 | 0.00 | 0.00 | 0.00 | 77 | 1011.4 |
| 20260506123327 | 51 | 141 | 3.5 | 7.0 | 0.00 | 0.00 | 0.00 | 76 | 1011.3 |
| 20260506123238 | 51 | 152 | 3.5 | 7.0 | 0.00 | 0.00 | 0.00 | 76 | 1011.4 |
| 20260506123140 | 51 | 152 | 3.5 | 7.0 | 0.00 | 0.00 | 0.00 | 76 | 1011.3 |
| 20260506123015 | 51 | 154 | 3.5 | 7.8 | 0.00 | 0.00 | 0.00 | 76 | 1011.4 |
| 20260506122914 | 51 | 154 | 3.5 | 7.8 | 0.00 | 0.00 | 0.00 | 76 | 1011.3 |
| 20260506122819 | 51 | 154 | 3.5 | 7.8 | 0.00 | 0.00 | 0.00 | 76 | 1011.4 |
| 20260506122718 | 51 | 154 | 3.5 | 7.8 | 0.00 | 0.00 | 0.00 | 76 | 1011.3 |
| 20260506122622 | 51 | 156 | 4.3 | 7.8 | 0.00 | 0.00 | 0.00 | 76 | 1011.4 |
| 20260506122538 | 51 | 155 | 3.5 | 7.8 | 0.00 | 0.00 | 0.00 | 76 | 1011.3 |
| 20260506122426 | 51 | 152 | 3.5 | 7.8 | 0.00 | 0.00 | 0.00 | 76 | 1011.3 |
| 20260506122324 | 51 | 156 | 4.3 | 7.8 | 0.00 | 0.00 | 0.00 | 76 | 1011.3 |
| 20260506122231 | 51 | 158 | 4.3 | 7.8 | 0.00 | 0.00 | 0.00 | 76 | 1011.3 |
| 20260506122150 | 51 | 156 | 3.5 | 7.0 | 0.00 | 0.00 | 0.00 | 76 | 1011.3 |
| 20260506122033 | 51 | 157 | 4.3 | 7.0 | 0.00 | 0.00 | 0.00 | 76 | 1011.3 |
| 20260506122000 | 51 | 163 | 4.3 | 7.0 | 0.00 | 0.00 | 0.00 | 76 | 1011.3 |
| 20260506121817 | 51 | 144 | 3.5 | 7.0 | 0.00 | 0.00 | 0.00 | 76 | 1011.3 |
| 20260506121720 | 51 | 155 | 3.5 | 7.0 | 0.00 | 0.00 | 0.00 | 76 | 1011.3 |
| 20260506121626 | 51 | 142 | 3.5 | 7.0 | 0.00 | 0.00 | 0.00 | 76 | 1011.3 |
| 20260506121523 | 51 | 144 | 3.5 | 7.0 | 0.00 | 0.00 | 0.00 | 76 | 1011.3 |
| 20260506121420 | 51 | 164 | 3.5 | 7.0 | 0.00 | 0.00 | 0.00 | 76 | 1011.3 |
| 20260506121325 | 52 | 150 | 4.3 | 7.0 | 0.00 | 0.00 | 0.00 | 76 | 1011.3 |
| 20260506121221 | 52 | 163 | 3.5 | 7.0 | 0.00 | 0.00 | 0.00 | 76 | 1011.3 |
| 20260506121134 | 52 | 140 | 4.3 | 7.0 | 0.00 | 0.00 | 0.00 | 76 | 1011.3 |
| 20260506121030 | 52 | 139 | 4.3 | 7.0 | 0.00 | 0.00 | 0.00 | 76 | 1011.3 |
| 20260506120926 | 52 | 144 | 4.3 | 7.0 | 0.00 | 0.00 | 0.00 | 76 | 1011.3 |
| 20260506120832 | 52 | 171 | 3.5 | 7.0 | 0.00 | 0.00 | 0.00 | 76 | 1011.3 |
| 20260506120729 | 52 | 150 | 3.5 | 7.0 | 0.00 | 0.00 | 0.00 | 76 | 1011.2 |
| 20260506120637 | 52 | 153 | 3.5 | 7.0 | 0.00 | 0.00 | 0.00 | 76 | 1011.2 |
| 20260506120516 | 52 | 156 | 3.5 | 7.0 | 0.00 | 0.00 | 0.00 | 75 | 1011.2 |
| 20260506120414 | 52 | 158 | 3.5 | 7.0 | 0.00 | 0.00 | 0.00 | 75 | 1011.2 |
| 20260506120319 | 52 | 155 | 3.5 | 7.0 | 0.00 | 0.00 | 0.00 | 75 | 1011.2 |
| 20260506120217 | 52 | 154 | 3.5 | 7.0 | 0.00 | 0.00 | 0.00 | 75 | 1011.2 |
| 20260506120122 | 52 | 154 | 3.5 | 7.0 | 0.00 | 0.00 | 0.00 | 75 | 1011.2 |
| 20260506120019 | 52 | 155 | 3.5 | 7.0 | 0.00 | 0.00 | 0.00 | 75 | 1011.2 |
| 20260506115914 | 52 | 158 | 4.3 | 7.0 | 0.00 | 0.00 | 0.00 | 75 | 1011.1 |
| 20260506115825 | 52 | 144 | 4.3 | 7.0 | 0.00 | 0.00 | 0.00 | 75 | 1011.1 |
| 20260506115721 | 52 | 164 | 4.3 | 7.0 | 0.00 | 0.00 | 0.00 | 74 | 1011.1 |
| 20260506115630 | 52 | 151 | 3.5 | 7.0 | 0.00 | 0.00 | 0.00 | 74 | 1011.1 |
| 20260506115524 | 52 | 173 | 2.6 | 6.1 | 0.00 | 0.00 | 0.00 | 74 | 1011.1 |
| 20260506115430 | 52 | 143 | 2.6 | 6.1 | 0.00 | 0.00 | 0.00 | 74 | 1011.1 |
| 20260506115348 | 52 | 142 | 3.5 | 6.1 | 0.00 | 0.00 | 0.00 | 73 | 1011.2 |
| 20260506115230 | 52 | 143 | 3.5 | 6.1 | 0.00 | 0.00 | 0.00 | 73 | 1011.1 |
| 20260506115132 | 52 | 144 | 3.5 | 6.1 | 0.00 | 0.00 | 0.00 | 73 | 1011.1 |
| 20260506115037 | 52 | 146 | 2.6 | 6.1 | 0.00 | 0.00 | 0.00 | 72 | 1011.1 |
| 20260506114914 | 52 | 162 | 2.6 | 6.1 | 0.00 | 0.00 | 0.00 | 72 | 1011.0 |
| 20260506114831 | 52 | 162 | 2.6 | 6.1 | 0.00 | 0.00 | 0.00 | 72 | 1011.0 |
| 20260506114737 | 52 | 164 | 3.5 | 6.1 | 0.00 | 0.00 | 0.00 | 72 | 1011.0 |
| 20260506114635 | 52 | 166 | 3.5 | 5.2 | 0.00 | 0.00 | 0.00 | 72 | 1011.0 |
| 20260506114537 | 52 | 175 | 3.5 | 5.2 | 0.00 | 0.00 | 0.00 | 72 | 1011.0 |
| 20260506114418 | 52 | 153 | 2.6 | 6.1 | 0.00 | 0.00 | 0.00 | 72 | 1011.0 |
| 20260506114316 | 52 | 153 | 2.6 | 6.1 | 0.00 | 0.00 | 0.00 | 73 | 1011.0 |
| 20260506114224 | 52 | 153 | 2.6 | 6.1 | 0.00 | 0.00 | 0.00 | 73 | 1010.9 |
| 20260506114119 | 52 | 154 | 3.5 | 6.1 | 0.00 | 0.00 | 0.00 | 73 | 1010.9 |
| 20260506114014 | 53 | 146 | 3.5 | 6.1 | 0.00 | 0.00 | 0.00 | 73 | 1010.9 |
| 20260506113922 | 53 | 146 | 3.5 | 6.1 | 0.00 | 0.00 | 0.00 | 73 | 1010.9 |
| 20260506113823 | 53 | 147 | 3.5 | 6.1 | 0.00 | 0.00 | 0.00 | 73 | 1010.9 |
| 20260506113731 | 53 | 148 | 3.5 | 6.1 | 0.00 | 0.00 | 0.00 | 73 | 1010.9 |
| 20260506113626 | 53 | 148 | 3.5 | 6.1 | 0.00 | 0.00 | 0.00 | 73 | 1010.9 |
| 20260506113531 | 53 | 148 | 3.5 | 6.1 | 0.00 | 0.00 | 0.00 | 73 | 1010.9 |
| 20260506113430 | 53 | 150 | 3.5 | 6.1 | 0.00 | 0.00 | 0.00 | 73 | 1010.9 |
| 20260506113336 | 53 | 150 | 3.5 | 6.1 | 0.00 | 0.00 | 0.00 | 73 | 1010.9 |
| 20260506113215 | 53 | 151 | 3.5 | 6.1 | 0.00 | 0.00 | 0.00 | 73 | 1010.9 |
| 20260506113124 | 53 | 152 | 3.5 | 6.1 | 0.00 | 0.00 | 0.00 | 73 | 1010.9 |
| 20260506113039 | 53 | 153 | 4.3 | 6.1 | 0.00 | 0.00 | 0.00 | 73 | 1010.8 |
| 20260506112925 | 53 | 155 | 3.5 | 6.1 | 0.00 | 0.00 | 0.00 | 73 | 1010.9 |
| 20260506112822 | 53 | 156 | 3.5 | 6.1 | 0.00 | 0.00 | 0.00 | 74 | 1010.8 |
| 20260506112731 | 53 | 159 | 3.5 | 6.1 | 0.00 | 0.00 | 0.00 | 74 | 1010.8 |
| 20260506112625 | 53 | 160 | 3.5 | 6.1 | 0.00 | 0.00 | 0.00 | 74 | 1010.9 |
| 20260506112523 | 53 | 160 | 3.5 | 6.1 | 0.00 | 0.00 | 0.00 | 74 | 1010.8 |
| 20260506112434 | 53 | 160 | 3.5 | 6.1 | 0.00 | 0.00 | 0.00 | 74 | 1010.8 |
| 20260506112330 | 53 | 160 | 3.5 | 6.1 | 0.00 | 0.00 | 0.00 | 74 | 1010.8 |
| 20260506112239 | 53 | 160 | 3.5 | 6.1 | 0.00 | 0.00 | 0.00 | 74 | 1010.8 |
| 20260506112114 | 53 | 161 | 3.5 | 6.1 | 0.00 | 0.00 | 0.00 | 75 | 1010.8 |
| 20260506112030 | 53 | 162 | 3.5 | 6.1 | 0.00 | 0.00 | 0.00 | 75 | 1010.8 |
| 20260506111937 | 53 | 162 | 3.5 | 6.1 | 0.00 | 0.00 | 0.00 | 75 | 1010.8 |
| 20260506111819 | 53 | 162 | 3.5 | 6.1 | 0.00 | 0.00 | 0.00 | 75 | 1010.8 |
| 20260506111719 | 53 | 163 | 3.5 | 6.1 | 0.00 | 0.00 | 0.00 | 75 | 1010.8 |
| 20260506111623 | 53 | 163 | 3.5 | 6.1 | 0.00 | 0.00 | 0.00 | 75 | 1010.8 |
| 20260506111519 | 53 | 163 | 3.5 | 6.1 | 0.00 | 0.00 | 0.00 | 75 | 1010.8 |
| 20260506111427 | 53 | 163 | 3.5 | 6.1 | 0.00 | 0.00 | 0.00 | 75 | 1010.8 |
| 20260506111323 | 53 | 163 | 2.6 | 7.0 | 0.00 | 0.00 | 0.00 | 75 | 1010.8 |
| 20260506111224 | 53 | 165 | 2.6 | 7.0 | 0.00 | 0.00 | 0.00 | 75 | 1010.8 |
| 20260506111132 | 53 | 164 | 2.6 | 7.0 | 0.00 | 0.00 | 0.00 | 75 | 1010.8 |
| 20260506111028 | 53 | 164 | 3.5 | 7.0 | 0.00 | 0.00 | 0.00 | 75 | 1010.7 |
| 20260506110933 | 53 | 164 | 3.5 | 7.0 | 0.00 | 0.00 | 0.00 | 75 | 1010.7 |
| 20260506110830 | 53 | 166 | 2.6 | 7.0 | 0.00 | 0.00 | 0.00 | 75 | 1010.7 |
| 20260506110755 | 53 | 163 | 2.6 | 7.8 | 0.00 | 0.00 | 0.00 | 74 | 1010.7 |
| 20260506110633 | 53 | 161 | 3.5 | 7.8 | 0.00 | 0.00 | 0.00 | 74 | 1010.7 |
| 20260506110520 | 53 | 162 | 3.5 | 7.8 | 0.00 | 0.00 | 0.00 | 74 | 1010.7 |
| 20260506110418 | 53 | 164 | 2.6 | 7.8 | 0.00 | 0.00 | 0.00 | 74 | 1010.7 |
| 20260506110345 | 53 | 164 | 2.6 | 7.8 | 0.00 | 0.00 | 0.00 | 74 | 1010.7 |
| 20260506110230 | 53 | 165 | 2.6 | 7.8 | 0.00 | 0.00 | 0.00 | 73 | 1010.7 |
| 20260506110125 | 53 | 165 | 3.5 | 7.8 | 0.00 | 0.00 | 0.00 | 73 | 1010.7 |
| 20260506110023 | 53 | 166 | 4.3 | 7.8 | 0.00 | 0.00 | 0.00 | 73 | 1010.7 |
| 20260506105928 | 53 | 161 | 4.3 | 7.8 | 0.00 | 0.00 | 0.00 | 73 | 1010.7 |
| 20260506105824 | 53 | 160 | 5.2 | 7.8 | 0.00 | 0.00 | 0.00 | 73 | 1010.7 |
| 20260506105734 | 53 | 162 | 5.2 | 7.8 | 0.00 | 0.00 | 0.00 | 73 | 1010.7 |
| 20260506105631 | 53 | 162 | 4.3 | 7.8 | 0.00 | 0.00 | 0.00 | 73 | 1010.7 |
| 20260506105517 | 53 | 167 | 3.5 | 7.8 | 0.00 | 0.00 | 0.00 | 73 | 1010.7 |
| 20260506105412 | 53 | 149 | 3.5 | 7.8 | 0.00 | 0.00 | 0.00 | 73 | 1010.7 |
| 20260506105339 | 53 | 150 | 4.3 | 7.8 | 0.00 | 0.00 | 0.00 | 73 | 1010.7 |
| 20260506105218 | 53 | 150 | 4.3 | 7.8 | 0.00 | 0.00 | 0.00 | 73 | 1010.6 |
| 20260506105116 | 53 | 148 | 4.3 | 7.8 | 0.00 | 0.00 | 0.00 | 73 | 1010.7 |
| 20260506105023 | 53 | 167 | 4.3 | 7.8 | 0.00 | 0.00 | 0.00 | 73 | 1010.7 |
| 20260506104921 | 53 | 146 | 3.5 | 7.8 | 0.00 | 0.00 | 0.00 | 73 | 1010.6 |
| 20260506104847 | 53 | 169 | 3.5 | 7.8 | 0.00 | 0.00 | 0.00 | 72 | 1010.6 |
| 20260506104721 | 53 | 142 | 4.3 | 7.8 | 0.00 | 0.00 | 0.00 | 72 | 1010.6 |
| 20260506104628 | 53 | 142 | 4.3 | 7.8 | 0.00 | 0.00 | 0.00 | 72 | 1010.6 |
| 20260506104522 | 53 | 148 | 4.3 | 7.8 | 0.00 | 0.00 | 0.00 | 71 | 1010.6 |
| 20260506104448 | 53 | 142 | 4.3 | 7.8 | 0.00 | 0.00 | 0.00 | 71 | 1010.6 |
| 20260506104338 | 53 | 136 | 5.2 | 7.8 | 0.00 | 0.00 | 0.00 | 70 | 1010.5 |
| 20260506104235 | 53 | 138 | 4.3 | 7.0 | 0.00 | 0.00 | 0.00 | 70 | 1010.6 |
| 20260506104137 | 54 | 136 | 5.2 | 7.0 | 0.00 | 0.00 | 0.00 | 70 | 1010.6 |
| 20260506104014 | 54 | 141 | 5.2 | 7.0 | 0.00 | 0.00 | 0.00 | 69 | 1010.5 |
| 20260506103920 | 54 | 150 | 4.3 | 7.0 | 0.00 | 0.00 | 0.00 | 69 | 1010.5 |
| 20260506103816 | 54 | 140 | 4.3 | 7.0 | 0.00 | 0.00 | 0.00 | 69 | 1010.6 |
| 20260506103715 | 54 | 139 | 4.3 | 7.0 | 0.00 | 0.00 | 0.00 | 69 | 1010.5 |
| 20260506103624 | 54 | 136 | 4.3 | 7.0 | 0.00 | 0.00 | 0.00 | 69 | 1010.5 |
| 20260506103549 | 54 | 140 | 5.2 | 7.0 | 0.00 | 0.00 | 0.00 | 70 | 1010.5 |
| 20260506103424 | 54 | 142 | 4.3 | 7.0 | 0.00 | 0.00 | 0.00 | 70 | 1010.5 |
| 20260506103322 | 54 | 146 | 4.3 | 7.0 | 0.00 | 0.00 | 0.00 | 70 | 1010.5 |
| 20260506103230 | 54 | 149 | 4.3 | 7.0 | 0.00 | 0.00 | 0.00 | 71 | 1010.5 |
| 20260506103126 | 54 | 148 | 4.3 | 7.0 | 0.00 | 0.00 | 0.00 | 71 | 1010.5 |
| 20260506103032 | 54 | 158 | 3.5 | 6.1 | 0.00 | 0.00 | 0.00 | 71 | 1010.5 |
| 20260506102947 | 55 | 159 | 3.5 | 6.1 | 0.00 | 0.00 | 0.00 | 71 | 1010.4 |
| 20260506102833 | 55 | 160 | 3.5 | 6.1 | 0.00 | 0.00 | 0.00 | 71 | 1010.5 |
| 20260506102802 | 55 | 161 | 2.6 | 5.2 | 0.00 | 0.00 | 0.00 | 72 | 1010.4 |
| 20260506102615 | 55 | 162 | 3.5 | 5.2 | 0.00 | 0.00 | 0.00 | 72 | 1010.4 |
| 20260506102512 | 55 | 162 | 2.6 | 5.2 | 0.00 | 0.00 | 0.00 | 72 | 1010.4 |
| 20260506102437 | 55 | 162 | 2.6 | 5.2 | 0.00 | 0.00 | 0.00 | 72 | 1010.4 |
| 20260506102315 | 55 | 163 | 2.6 | 5.2 | 0.00 | 0.00 | 0.00 | 71 | 1010.4 |
| 20260506102220 | 55 | 163 | 2.6 | 5.2 | 0.00 | 0.00 | 0.00 | 71 | 1010.4 |
| 20260506102119 | 55 | 163 | 2.6 | 5.2 | 0.00 | 0.00 | 0.00 | 71 | 1010.4 |
| 20260506102016 | 55 | 163 | 2.6 | 5.2 | 0.00 | 0.00 | 0.00 | 71 | 1010.4 |
| 20260506101942 | 55 | 163 | 2.6 | 5.2 | 0.00 | 0.00 | 0.00 | 71 | 1010.4 |
| 20260506101827 | 55 | 163 | 3.5 | 5.2 | 0.00 | 0.00 | 0.00 | 71 | 1010.4 |
| 20260506101725 | 55 | 163 | 2.6 | 6.1 | 0.00 | 0.00 | 0.00 | 71 | 1010.4 |
| 20260506101621 | 55 | 163 | 2.6 | 6.1 | 0.00 | 0.00 | 0.00 | 72 | 1010.4 |
| 20260506101525 | 55 | 163 | 2.6 | 6.1 | 0.00 | 0.00 | 0.00 | 72 | 1010.4 |
| 20260506101434 | 55 | 163 | 2.6 | 6.1 | 0.00 | 0.00 | 0.00 | 72 | 1010.4 |
| 20260506101312 | 56 | 163 | 2.6 | 6.1 | 0.00 | 0.00 | 0.00 | 72 | 1010.4 |
| 20260506101240 | 56 | 163 | 2.6 | 6.1 | 0.00 | 0.00 | 0.00 | 72 | 1010.4 |
| 20260506101114 | 56 | 163 | 2.6 | 6.1 | 0.00 | 0.00 | 0.00 | 72 | 1010.4 |
| 20260506101031 | 56 | 163 | 3.5 | 6.1 | 0.00 | 0.00 | 0.00 | 72 | 1010.4 |
| 20260506100937 | 56 | 163 | 3.5 | 6.1 | 0.00 | 0.00 | 0.00 | 72 | 1010.4 |
| 20260506100818 | 56 | 163 | 2.6 | 6.1 | 0.00 | 0.00 | 0.00 | 72 | 1010.4 |
| 20260506100717 | 56 | 163 | 2.6 | 6.1 | 0.00 | 0.00 | 0.00 | 72 | 1010.4 |
| 20260506100620 | 56 | 164 | 3.5 | 6.1 | 0.00 | 0.00 | 0.00 | 72 | 1010.4 |
| 20260506100518 | 56 | 164 | 3.5 | 5.2 | 0.00 | 0.00 | 0.00 | 72 | 1010.4 |
| 20260506100415 | 56 | 164 | 2.6 | 5.2 | 0.00 | 0.00 | 0.00 | 72 | 1010.4 |
| 20260506100320 | 56 | 165 | 3.5 | 5.2 | 0.00 | 0.00 | 0.00 | 72 | 1010.4 |
| 20260506100215 | 56 | 164 | 3.5 | 5.2 | 0.00 | 0.00 | 0.00 | 72 | 1010.4 |
| 20260506100124 | 56 | 165 | 2.6 | 5.2 | 0.00 | 0.00 | 0.00 | 72 | 1010.3 |
| 20260506100021 | 56 | 165 | 2.6 | 5.2 | 0.00 | 0.00 | 0.00 | 72 | 1010.4 |
| 20260506095925 | 56 | 165 | 2.6 | 5.2 | 0.00 | 0.00 | 0.00 | 72 | 1010.3 |
| 20260506095822 | 56 | 165 | 2.6 | 6.1 | 0.00 | 0.00 | 0.00 | 72 | 1010.4 |
| 20260506095749 | 57 | 165 | 2.6 | 6.1 | 0.00 | 0.00 | 0.00 | 72 | 1010.4 |
| 20260506095622 | 57 | 165 | 2.6 | 6.1 | 0.00 | 0.00 | 0.00 | 71 | 1010.3 |
| 20260506095517 | 57 | 165 | 2.6 | 6.1 | 0.00 | 0.00 | 0.00 | 71 | 1010.3 |
| 20260506095425 | 57 | 165 | 3.5 | 6.1 | 0.00 | 0.00 | 0.00 | 71 | 1010.3 |
| 20260506095332 | 57 | 165 | 3.5 | 6.1 | 0.00 | 0.00 | 0.00 | 71 | 1010.3 |
| 20260506095228 | 57 | 166 | 3.5 | 6.1 | 0.00 | 0.00 | 0.00 | 71 | 1010.3 |
| 20260506095137 | 57 | 166 | 3.5 | 6.1 | 0.00 | 0.00 | 0.00 | 71 | 1010.4 |
| 20260506095012 | 57 | 166 | 3.5 | 6.1 | 0.00 | 0.00 | 0.00 | 71 | 1010.3 |
| 20260506094930 | 57 | 194 | 2.6 | 4.3 | 0.00 | 0.00 | 0.00 | 71 | 1010.3 |
| 20260506094835 | 57 | 194 | 2.6 | 4.3 | 0.00 | 0.00 | 0.00 | 70 | 1010.3 |
| 20260506094719 | 57 | 200 | 2.6 | 4.3 | 0.00 | 0.00 | 0.00 | 70 | 1010.3 |
| 20260506094614 | 57 | 200 | 2.6 | 4.3 | 0.00 | 0.00 | 0.00 | 70 | 1010.4 |
| 20260506094541 | 58 | 200 | 1.7 | 3.5 | 0.00 | 0.00 | 0.00 | 70 | 1010.3 |
| 20260506094446 | 58 | 201 | 1.7 | 3.5 | 0.00 | 0.00 | 0.00 | 70 | 1010.3 |
| 20260506094322 | 58 | 201 | 1.7 | 3.5 | 0.00 | 0.00 | 0.00 | 70 | 1010.3 |
| 20260506094229 | 58 | 201 | 1.7 | 3.5 | 0.00 | 0.00 | 0.00 | 70 | 1010.3 |
| 20260506094127 | 58 | 201 | 0.9 | 3.5 | 0.00 | 0.00 | 0.00 | 70 | 1010.3 |
| 20260506094037 | 58 | 201 | 0.9 | 3.5 | 0.00 | 0.00 | 0.00 | 70 | 1010.3 |
| 20260506093912 | 58 | 201 | 0.9 | 3.5 | 0.00 | 0.00 | 0.00 | 70 | 1010.4 |
| 20260506093829 | 58 | 201 | 0.9 | 3.5 | 0.00 | 0.00 | 0.00 | 70 | 1010.4 |
| 20260506093734 | 58 | 201 | 0.9 | 3.5 | 0.00 | 0.00 | 0.00 | 70 | 1010.3 |
| 20260506093643 | 58 | 201 | 0.9 | 3.5 | 0.00 | 0.00 | 0.00 | 70 | 1010.3 |
| 20260506093517 | 58 | 201 | 0.9 | 3.5 | 0.00 | 0.00 | 0.00 | 70 | 1010.3 |
| 20260506093418 | 58 | 201 | 0.9 | 3.5 | 0.00 | 0.00 | 0.00 | 70 | 1010.3 |
| 20260506093323 | 58 | 201 | 0.9 | 3.5 | 0.00 | 0.00 | 0.00 | 70 | 1010.3 |
| 20260506093221 | 58 | 201 | 0.9 | 3.5 | 0.00 | 0.00 | 0.00 | 70 | 1010.3 |
| 20260506093125 | 58 | 201 | 0.9 | 3.5 | 0.00 | 0.00 | 0.00 | 70 | 1010.3 |
| 20260506093042 | 58 | 201 | 0.0 | 3.5 | 0.00 | 0.00 | 0.00 | 70 | 1010.4 |
| 20260506092927 | 58 | 201 | 0.9 | 3.5 | 0.00 | 0.00 | 0.00 | 70 | 1010.4 |
| 20260506092823 | 58 | 201 | 1.7 | 3.5 | 0.00 | 0.00 | 0.00 | 70 | 1010.3 |
| 20260506092729 | 58 | 201 | 1.7 | 3.5 | 0.00 | 0.00 | 0.00 | 70 | 1010.3 |
| 20260506092632 | 58 | 201 | 1.7 | 3.5 | 0.00 | 0.00 | 0.00 | 70 | 1010.3 |
| 20260506092535 | 58 | 201 | 1.7 | 3.5 | 0.00 | 0.00 | 0.00 | 70 | 1010.3 |
| 20260506092432 | 58 | 201 | 1.7 | 3.5 | 0.00 | 0.00 | 0.00 | 70 | 1010.3 |
| 20260506092338 | 58 | 201 | 2.6 | 3.5 | 0.00 | 0.00 | 0.00 | 70 | 1010.3 |
| 20260506092215 | 59 | 201 | 1.7 | 4.3 | 0.00 | 0.00 | 0.00 | 70 | 1010.2 |
| 20260506092118 | 59 | 201 | 1.7 | 4.3 | 0.00 | 0.00 | 0.00 | 70 | 1010.2 |
| 20260506092013 | 59 | 201 | 2.6 | 4.3 | 0.00 | 0.00 | 0.00 | 70 | 1010.2 |
| 20260506091922 | 59 | 201 | 1.7 | 4.3 | 0.00 | 0.00 | 0.00 | 70 | 1010.2 |
| 20260506091820 | 59 | 201 | 2.6 | 4.3 | 0.00 | 0.00 | 0.00 | 70 | 1010.2 |
| 20260506091718 | 59 | 201 | 2.6 | 4.3 | 0.00 | 0.00 | 0.00 | 70 | 1010.3 |
| 20260506091621 | 59 | 201 | 2.6 | 4.3 | 0.00 | 0.00 | 0.00 | 70 | 1010.3 |
| 20260506091526 | 59 | 201 | 2.6 | 4.3 | 0.00 | 0.00 | 0.00 | 70 | 1010.3 |
| 20260506091421 | 59 | 202 | 2.6 | 4.3 | 0.00 | 0.00 | 0.00 | 70 | 1010.3 |
| 20260506091318 | 59 | 202 | 2.6 | 4.3 | 0.00 | 0.00 | 0.00 | 70 | 1010.3 |
| 20260506091245 | 59 | 202 | 2.6 | 4.3 | 0.00 | 0.00 | 0.00 | 70 | 1010.3 |
| 20260506091137 | 59 | 202 | 2.6 | 4.3 | 0.00 | 0.00 | 0.00 | 70 | 1010.3 |
| 20260506091032 | 59 | 202 | 2.6 | 4.3 | 0.00 | 0.00 | 0.00 | 70 | 1010.3 |
| 20260506090930 | 59 | 202 | 2.6 | 4.3 | 0.00 | 0.00 | 0.00 | 69 | 1010.3 |
| 20260506090835 | 59 | 206 | 2.6 | 4.3 | 0.00 | 0.00 | 0.00 | 69 | 1010.3 |
| 20260506090713 | 59 | 206 | 2.6 | 4.3 | 0.00 | 0.00 | 0.00 | 69 | 1010.3 |
| 20260506090641 | 59 | 206 | 2.6 | 4.3 | 0.00 | 0.00 | 0.00 | 69 | 1010.3 |
| 20260506090539 | 59 | 206 | 2.6 | 3.5 | 0.00 | 0.00 | 0.00 | 69 | 1010.2 |
| 20260506090445 | 59 | 206 | 2.6 | 4.3 | 0.00 | 0.00 | 0.00 | 69 | 1010.2 |
| 20260506090321 | 59 | 206 | 2.6 | 4.3 | 0.00 | 0.00 | 0.00 | 69 | 1010.2 |
| 20260506090229 | 59 | 206 | 2.6 | 4.3 | 0.00 | 0.00 | 0.00 | 69 | 1010.2 |
| 20260506090123 | 59 | 206 | 2.6 | 4.3 | 0.00 | 0.00 | 0.00 | 69 | 1010.2 |
| 20260506090049 | 59 | 206 | 2.6 | 4.3 | 0.00 | 0.00 | 0.00 | 69 | 1010.2 |
| 20260506085923 | 59 | 206 | 2.6 | 4.3 | 0.00 | 0.00 | 0.00 | 69 | 1010.2 |
| 20260506085829 | 59 | 206 | 2.6 | 4.3 | 0.00 | 0.00 | 0.00 | 69 | 1010.2 |
| 20260506085752 | 59 | 207 | 2.6 | 4.3 | 0.00 | 0.00 | 0.00 | 69 | 1010.2 |
| 20260506085705 | 59 | 207 | 2.6 | 4.3 | 0.00 | 0.00 | 0.00 | 69 | 1010.2 |
| 20260506085515 | 59 | 208 | 2.6 | 4.3 | 0.00 | 0.00 | 0.00 | 69 | 1010.2 |
| 20260506085413 | 59 | 208 | 2.6 | 4.3 | 0.00 | 0.00 | 0.00 | 69 | 1010.2 |
| 20260506085319 | 59 | 210 | 2.6 | 4.3 | 0.00 | 0.00 | 0.00 | 69 | 1010.2 |
| 20260506085219 | 59 | 210 | 2.6 | 4.3 | 0.00 | 0.00 | 0.00 | 69 | 1010.2 |
| 20260506085143 | 59 | 210 | 2.6 | 4.3 | 0.00 | 0.00 | 0.00 | 69 | 1010.2 |
| 20260506085018 | 59 | 210 | 2.6 | 4.3 | 0.00 | 0.00 | 0.00 | 69 | 1010.2 |
| 20260506084929 | 59 | 210 | 2.6 | 4.3 | 0.00 | 0.00 | 0.00 | 69 | 1010.2 |
| 20260506084828 | 59 | 210 | 2.6 | 3.5 | 0.00 | 0.00 | 0.00 | 69 | 1010.2 |
| 20260506084733 | 59 | 210 | 2.6 | 3.5 | 0.00 | 0.00 | 0.00 | 69 | 1010.3 |
| 20260506084631 | 59 | 210 | 2.6 | 3.5 | 0.00 | 0.00 | 0.00 | 69 | 1010.3 |
| 20260506084535 | 60 | 210 | 2.6 | 3.5 | 0.00 | 0.00 | 0.00 | 69 | 1010.3 |
| 20260506084425 | 60 | 210 | 2.6 | 3.5 | 0.00 | 0.00 | 0.00 | 69 | 1010.2 |
| 20260506084330 | 60 | 210 | 1.7 | 3.5 | 0.00 | 0.00 | 0.00 | 69 | 1010.2 |
| 20260506084232 | 60 | 210 | 1.7 | 3.5 | 0.00 | 0.00 | 0.00 | 69 | 1010.2 |
| 20260506084131 | 60 | 210 | 1.7 | 3.5 | 0.00 | 0.00 | 0.00 | 69 | 1010.3 |
| 20260506084018 | 60 | 210 | 1.7 | 3.5 | 0.00 | 0.00 | 0.00 | 69 | 1010.3 |
| 20260506083915 | 60 | 210 | 2.6 | 3.5 | 0.00 | 0.00 | 0.00 | 69 | 1010.3 |
| 20260506083840 | 60 | 210 | 2.6 | 3.5 | 0.00 | 0.00 | 0.00 | 69 | 1010.3 |
| 20260506083719 | 60 | 210 | 1.7 | 3.5 | 0.00 | 0.00 | 0.00 | 69 | 1010.3 |
| 20260506083644 | 60 | 210 | 1.7 | 3.5 | 0.00 | 0.00 | 0.00 | 69 | 1010.3 |
| 20260506083518 | 60 | 210 | 1.7 | 3.5 | 0.00 | 0.00 | 0.00 | 69 | 1010.3 |
| 20260506083424 | 60 | 210 | 1.7 | 3.5 | 0.00 | 0.00 | 0.00 | 69 | 1010.3 |
| 20260506083321 | 60 | 210 | 2.6 | 3.5 | 0.00 | 0.00 | 0.00 | 69 | 1010.3 |
| 20260506083220 | 60 | 210 | 2.6 | 3.5 | 0.00 | 0.00 | 0.00 | 69 | 1010.3 |
| 20260506083125 | 60 | 210 | 2.6 | 3.5 | 0.00 | 0.00 | 0.00 | 69 | 1010.3 |
| 20260506083023 | 60 | 210 | 2.6 | 3.5 | 0.00 | 0.00 | 0.00 | 69 | 1010.2 |
| 20260506082929 | 60 | 210 | 2.6 | 3.5 | 0.00 | 0.00 | 0.00 | 69 | 1010.2 |
| 20260506082830 | 60 | 210 | 2.6 | 3.5 | 0.00 | 0.00 | 0.00 | 69 | 1010.3 |
| 20260506082735 | 60 | 210 | 2.6 | 3.5 | 0.00 | 0.00 | 0.00 | 69 | 1010.3 |
| 20260506082703 | 60 | 210 | 2.6 | 3.5 | 0.00 | 0.00 | 0.00 | 69 | 1010.3 |
| 20260506082517 | 60 | 210 | 2.6 | 3.5 | 0.00 | 0.00 | 0.00 | 69 | 1010.3 |
| 20260506082415 | 60 | 210 | 1.7 | 2.6 | 0.00 | 0.00 | 0.00 | 69 | 1010.3 |
| 20260506082340 | 60 | 210 | 1.7 | 2.6 | 0.00 | 0.00 | 0.00 | 69 | 1010.3 |
| 20260506082218 | 60 | 210 | 1.7 | 2.6 | 0.00 | 0.00 | 0.00 | 69 | 1010.3 |
| 20260506082149 | 60 | 210 | 1.7 | 2.6 | 0.00 | 0.00 | 0.00 | 69 | 1010.3 |
| 20260506082024 | 60 | 210 | 1.7 | 2.6 | 0.00 | 0.00 | 0.00 | 69 | 1010.3 |
| 20260506081929 | 60 | 210 | 1.7 | 3.5 | 0.00 | 0.00 | 0.00 | 69 | 1010.3 |
| 20260506081825 | 60 | 210 | 1.7 | 3.5 | 0.00 | 0.00 | 0.00 | 69 | 1010.3 |
| 20260506081731 | 60 | 210 | 1.7 | 3.5 | 0.00 | 0.00 | 0.00 | 69 | 1010.3 |
| 20260506081647 | 60 | 210 | 1.7 | 3.5 | 0.00 | 0.00 | 0.00 | 68 | 1010.3 |
| 20260506081513 | 60 | 210 | 2.6 | 3.5 | 0.00 | 0.00 | 0.00 | 68 | 1010.2 |
| 20260506081427 | 60 | 210 | 2.6 | 3.5 | 0.00 | 0.00 | 0.00 | 68 | 1010.2 |
| 20260506081315 | 60 | 210 | 2.6 | 3.5 | 0.00 | 0.00 | 0.00 | 68 | 1010.2 |
| 20260506081242 | 60 | 210 | 2.6 | 3.5 | 0.00 | 0.00 | 0.00 | 68 | 1010.2 |
| 20260506081137 | 60 | 210 | 2.6 | 3.5 | 0.00 | 0.00 | 0.00 | 68 | 1010.3 |
| 20260506081043 | 60 | 210 | 1.7 | 2.6 | 0.00 | 0.00 | 0.00 | 68 | 1010.3 |
| 20260506080938 | 60 | 210 | 1.7 | 2.6 | 0.00 | 0.00 | 0.00 | 68 | 1010.2 |
| 20260506080824 | 60 | 210 | 1.7 | 2.6 | 0.00 | 0.00 | 0.00 | 68 | 1010.2 |
| 20260506080729 | 60 | 210 | 1.7 | 2.6 | 0.00 | 0.00 | 0.00 | 68 | 1010.2 |
| 20260506080625 | 60 | 210 | 1.7 | 2.6 | 0.00 | 0.00 | 0.00 | 68 | 1010.2 |
| 20260506080534 | 60 | 210 | 1.7 | 2.6 | 0.00 | 0.00 | 0.00 | 68 | 1010.2 |
| 20260506080429 | 60 | 210 | 1.7 | 2.6 | 0.00 | 0.00 | 0.00 | 68 | 1010.2 |
| 20260506080332 | 60 | 210 | 1.7 | 2.6 | 0.00 | 0.00 | 0.00 | 68 | 1010.2 |
| 20260506080226 | 60 | 210 | 1.7 | 2.6 | 0.00 | 0.00 | 0.00 | 68 | 1010.2 |
| 20260506080152 | 60 | 210 | 1.7 | 2.6 | 0.00 | 0.00 | 0.00 | 68 | 1010.2 |
| 20260506073521 | 61 | 210 | 0.0 | 0.9 | 0.00 | 0.00 | 0.00 | 67 | 1010.0 |
| 20260506073427 | 61 | 210 | 0.0 | 0.0 | 0.00 | 0.00 | 0.00 | 67 | 1010.0 |
| 20260506073323 | 61 | 210 | 0.0 | 0.0 | 0.00 | 0.00 | 0.00 | 67 | 1009.9 |
| 20260506073251 | 61 | 210 | 0.0 | 0.0 | 0.00 | 0.00 | 0.00 | 67 | 1009.9 |
| 20260506073125 | 61 | 210 | 0.0 | 0.0 | 0.00 | 0.00 | 0.00 | 67 | 1009.9 |
| 20260506073051 | 61 | 210 | 0.0 | 0.0 | 0.00 | 0.00 | 0.00 | 67 | 1009.9 |
| 20260506072931 | 61 | 210 | 0.0 | 0.0 | 0.00 | 0.00 | 0.00 | 67 | 1009.9 |
| 20260506072836 | 61 | 210 | 0.0 | 0.0 | 0.00 | 0.00 | 0.00 | 67 | 1009.9 |
| 20260506072713 | 61 | 210 | 0.0 | 0.0 | 0.00 | 0.00 | 0.00 | 67 | 1009.9 |
| 20260506072642 | 61 | 210 | 0.0 | 0.0 | 0.00 | 0.00 | 0.00 | 67 | 1009.9 |
| 20260506072517 | 61 | 210 | 0.0 | 0.0 | 0.00 | 0.00 | 0.00 | 66 | 1009.9 |
| 20260506072413 | 61 | 210 | 0.0 | 0.0 | 0.00 | 0.00 | 0.00 | 66 | 1009.9 |
| 20260506072314 | 61 | 210 | 0.0 | 0.0 | 0.00 | 0.00 | 0.00 | 66 | 1009.9 |
| 20260506072222 | 61 | 210 | 0.0 | 0.0 | 0.00 | 0.00 | 0.00 | 66 | 1009.8 |
| 20260506072117 | 61 | 210 | 0.0 | 0.0 | 0.00 | 0.00 | 0.00 | 66 | 1009.8 |
| 20260506072024 | 61 | 210 | 0.0 | 0.0 | 0.00 | 0.00 | 0.00 | 66 | 1009.9 |
| 20260506071921 | 61 | 210 | 0.0 | 0.0 | 0.00 | 0.00 | 0.00 | 66 | 1009.9 |
| 20260506071818 | 62 | 210 | 0.0 | 0.0 | 0.00 | 0.00 | 0.00 | 66 | 1009.8 |
| 20260506071725 | 62 | 210 | 0.0 | 0.0 | 0.00 | 0.00 | 0.00 | 66 | 1009.8 |
| 20260506071625 | 62 | 210 | 0.0 | 0.0 | 0.00 | 0.00 | 0.00 | 65 | 1009.8 |
| 20260506071522 | 62 | 210 | 0.0 | 0.0 | 0.00 | 0.00 | 0.00 | 65 | 1009.8 |
| 20260506071429 | 62 | 210 | 0.0 | 0.0 | 0.00 | 0.00 | 0.00 | 65 | 1009.8 |
| 20260506071327 | 62 | 210 | 0.0 | 0.0 | 0.00 | 0.00 | 0.00 | 65 | 1009.8 |
| 20260506071233 | 62 | 210 | 0.0 | 0.0 | 0.00 | 0.00 | 0.00 | 65 | 1009.7 |
| 20260506071132 | 62 | 210 | 0.0 | 0.0 | 0.00 | 0.00 | 0.00 | 65 | 1009.8 |
| 20260506071056 | 62 | 210 | 0.0 | 0.0 | 0.00 | 0.00 | 0.00 | 65 | 1009.8 |
| 20260506070833 | 62 | 210 | 0.0 | 0.0 | 0.00 | 0.00 | 0.00 | 64 | 1009.7 |
| 20260506070730 | 62 | 210 | 0.0 | 0.0 | 0.00 | 0.00 | 0.00 | 64 | 1009.7 |
| 20260506070636 | 62 | 210 | 0.0 | 0.0 | 0.00 | 0.00 | 0.00 | 64 | 1009.7 |
| 20260506070548 | 62 | 210 | 0.0 | 0.0 | 0.00 | 0.00 | 0.00 | 64 | 1009.7 |
| 20260506070433 | 62 | 210 | 0.0 | 0.0 | 0.00 | 0.00 | 0.00 | 64 | 1009.7 |
| 20260506070329 | 62 | 210 | 0.0 | 0.0 | 0.00 | 0.00 | 0.00 | 64 | 1009.6 |
| 20260506070238 | 62 | 210 | 0.0 | 0.0 | 0.00 | 0.00 | 0.00 | 64 | 1009.6 |
| 20260506070117 | 62 | 210 | 0.0 | 1.7 | 0.00 | 0.00 | 0.00 | 64 | 1009.6 |
| 20260506062433 | 64 | 210 | 0.9 | 1.7 | 0.00 | 0.00 | 0.00 | 60 | 1009.4 |
| 20260506062358 | 64 | 210 | 0.9 | 1.7 | 0.00 | 0.00 | 0.00 | 60 | 1009.4 |
| 20260506062215 | 64 | 210 | 0.0 | 1.7 | 0.00 | 0.00 | 0.00 | 60 | 1009.3 |
| 20260506062140 | 64 | 210 | 0.0 | 1.7 | 0.00 | 0.00 | 0.00 | 60 | 1009.4 |
| 20260506062045 | 64 | 210 | 0.0 | 1.7 | 0.00 | 0.00 | 0.00 | 60 | 1009.3 |
| 20260506061918 | 64 | 210 | 0.0 | 1.7 | 0.00 | 0.00 | 0.00 | 60 | 1009.3 |
| 20260506061815 | 64 | 210 | 0.0 | 1.7 | 0.00 | 0.00 | 0.00 | 59 | 1009.3 |
| 20260506061724 | 64 | 210 | 0.0 | 1.7 | 0.00 | 0.00 | 0.00 | 59 | 1009.3 |
| 20260506061621 | 64 | 210 | 0.9 | 1.7 | 0.00 | 0.00 | 0.00 | 60 | 1009.3 |
| 20260506061529 | 64 | 210 | 0.9 | 2.6 | 0.00 | 0.00 | 0.00 | 60 | 1009.3 |
| 20260506061426 | 65 | 210 | 0.9 | 3.5 | 0.00 | 0.00 | 0.00 | 59 | 1009.2 |
| 20260506061323 | 65 | 210 | 0.9 | 3.5 | 0.00 | 0.00 | 0.00 | 59 | 1009.2 |
| 20260506061231 | 65 | 210 | 0.9 | 3.5 | 0.00 | 0.00 | 0.00 | 59 | 1009.2 |
| 20260506061125 | 65 | 210 | 0.9 | 3.5 | 0.00 | 0.00 | 0.00 | 59 | 1009.1 |
| 20260506061035 | 65 | 210 | 0.9 | 3.5 | 0.00 | 0.00 | 0.00 | 59 | 1009.1 |
| 20260506060930 | 65 | 210 | 0.0 | 3.5 | 0.00 | 0.00 | 0.00 | 60 | 1009.1 |
| 20260506060814 | 65 | 210 | 1.7 | 3.5 | 0.00 | 0.00 | 0.00 | 60 | 1009.1 |
| 20260506060741 | 65 | 210 | 2.6 | 3.5 | 0.00 | 0.00 | 0.00 | 60 | 1009.1 |
| 20260506060617 | 65 | 210 | 2.6 | 3.5 | 0.00 | 0.00 | 0.00 | 60 | 1009.1 |
| 20260506060524 | 65 | 236 | 1.7 | 3.5 | 0.00 | 0.00 | 0.00 | 60 | 1009.1 |
| 20260506060441 | 65 | 236 | 2.6 | 3.5 | 0.00 | 0.00 | 0.00 | 60 | 1009.1 |
| 20260506060325 | 65 | 236 | 2.6 | 3.5 | 0.00 | 0.00 | 0.00 | 60 | 1009.1 |
| 20260506060226 | 65 | 236 | 2.6 | 3.5 | 0.00 | 0.00 | 0.00 | 60 | 1009.1 |
| 20260506060134 | 65 | 237 | 1.7 | 2.6 | 0.00 | 0.00 | 0.00 | 60 | 1009.0 |
| 20260506051326 | 68 | 304 | 0.0 | 1.7 | 0.00 | 0.00 | 0.00 | 53 | 1008.5 |
| 20260506051232 | 68 | 304 | 0.0 | 1.7 | 0.00 | 0.00 | 0.00 | 53 | 1008.5 |
| 20260506051131 | 68 | 304 | 0.0 | 1.7 | 0.00 | 0.00 | 0.00 | 53 | 1008.5 |
| 20260506051027 | 68 | 304 | 0.0 | 1.7 | 0.00 | 0.00 | 0.00 | 53 | 1008.5 |
| 20260506050931 | 68 | 304 | 0.9 | 1.7 | 0.00 | 0.00 | 0.00 | 53 | 1008.5 |
| 20260506050900 | 68 | 304 | 0.9 | 1.7 | 0.00 | 0.00 | 0.00 | 53 | 1008.5 |
| 20260506050717 | 68 | 304 | 0.9 | 1.7 | 0.00 | 0.00 | 0.00 | 54 | 1008.5 |
| 20260506050616 | 68 | 304 | 0.9 | 1.7 | 0.00 | 0.00 | 0.00 | 54 | 1008.5 |
| 20260506050543 | 68 | 304 | 0.9 | 1.7 | 0.00 | 0.00 | 0.00 | 54 | 1008.5 |
| 20260506050419 | 68 | 304 | 0.9 | 1.7 | 0.00 | 0.00 | 0.00 | 54 | 1008.5 |
| 20260506050325 | 68 | 304 | 0.9 | 1.7 | 0.00 | 0.00 | 0.00 | 54 | 1008.5 |
| 20260506050223 | 68 | 302 | 0.0 | 0.9 | 0.00 | 0.00 | 0.00 | 54 | 1008.5 |
| 20260506050117 | 68 | 302 | 0.0 | 0.9 | 0.00 | 0.00 | 0.00 | 53 | 1008.5 |
| 20260506045130 | 69 | 300 | 0.9 | 1.7 | 0.00 | 0.00 | 0.00 | 51 | 1008.4 |
| 20260506045052 | 69 | 300 | 0.9 | 1.7 | 0.00 | 0.00 | 0.00 | 51 | 1008.5 |
| 20260506044958 | 69 | 300 | 0.0 | 2.6 | 0.00 | 0.00 | 0.00 | 50 | 1008.4 |
| 20260506044813 | 69 | 300 | 0.9 | 2.6 | 0.00 | 0.00 | 0.00 | 50 | 1008.5 |
| 20260506044729 | 69 | 300 | 0.9 | 2.6 | 0.00 | 0.00 | 0.00 | 50 | 1008.5 |
| 20260506044635 | 70 | 300 | 0.9 | 2.6 | 0.00 | 0.00 | 0.00 | 49 | 1008.4 |
| 20260506044514 | 70 | 300 | 0.0 | 2.6 | 0.00 | 0.00 | 0.00 | 49 | 1008.4 |
| 20260506044440 | 70 | 300 | 0.9 | 2.6 | 0.00 | 0.00 | 0.00 | 49 | 1008.4 |
| 20260506044318 | 70 | 300 | 1.7 | 2.6 | 0.00 | 0.00 | 0.00 | 48 | 1008.4 |
| 20260506044216 | 70 | 300 | 1.7 | 2.6 | 0.00 | 0.00 | 0.00 | 48 | 1008.4 |
| 20260506044123 | 70 | 300 | 0.9 | 2.6 | 0.00 | 0.00 | 0.00 | 47 | 1008.4 |
| 20260506044019 | 70 | 300 | 0.9 | 2.6 | 0.00 | 0.00 | 0.00 | 47 | 1008.4 |
| 20260506043921 | 70 | 300 | 1.7 | 2.6 | 0.00 | 0.00 | 0.00 | 46 | 1008.3 |
| 20260506043828 | 70 | 300 | 1.7 | 2.6 | 0.00 | 0.00 | 0.00 | 46 | 1008.3 |
| 20260506043725 | 70 | 300 | 0.9 | 2.6 | 0.00 | 0.00 | 0.00 | 46 | 1008.3 |
| 20260506043653 | 70 | 335 | 0.9 | 2.6 | 0.00 | 0.00 | 0.00 | 45 | 1008.3 |
| 20260506043535 | 70 | 335 | 0.9 | 2.6 | 0.00 | 0.00 | 0.00 | 45 | 1008.3 |
| 20260506043413 | 70 | 336 | 0.9 | 2.6 | 0.00 | 0.00 | 0.00 | 44 | 1008.3 |
| 20260506043340 | 70 | 337 | 0.0 | 2.6 | 0.00 | 0.00 | 0.00 | 44 | 1008.3 |
| 20260506043217 | 71 | 337 | 0.0 | 2.6 | 0.00 | 0.00 | 0.00 | 44 | 1008.3 |
| 20260506043118 | 71 | 337 | 0.0 | 2.6 | 0.00 | 0.00 | 0.00 | 44 | 1008.3 |
| 20260506043025 | 71 | 337 | 0.0 | 2.6 | 0.00 | 0.00 | 0.00 | 44 | 1008.3 |
| 20260506042952 | 71 | 337 | 0.9 | 2.6 | 0.00 | 0.00 | 0.00 | 44 | 1008.3 |
| 20260506042829 | 71 | 337 | 0.9 | 2.6 | 0.00 | 0.00 | 0.00 | 44 | 1008.3 |
| 20260506042734 | 71 | 337 | 0.9 | 2.6 | 0.00 | 0.00 | 0.00 | 44 | 1008.3 |
| 20260506042700 | 71 | 337 | 0.9 | 2.6 | 0.00 | 0.00 | 0.00 | 44 | 1008.3 |
| 20260506042535 | 71 | 337 | 0.9 | 1.7 | 0.00 | 0.00 | 0.00 | 44 | 1008.3 |
| 20260506042440 | 71 | 337 | 0.0 | 1.7 | 0.00 | 0.00 | 0.00 | 44 | 1008.3 |
| 20260506042320 | 71 | 337 | 0.0 | 0.0 | 0.00 | 0.00 | 0.00 | 44 | 1008.2 |
| 20260506042248 | 71 | 337 | 0.0 | 0.0 | 0.00 | 0.00 | 0.00 | 44 | 1008.2 |
| 20260506042123 | 71 | 337 | 0.0 | 0.0 | 0.00 | 0.00 | 0.00 | 43 | 1008.1 |
| 20260506042050 | 71 | 337 | 0.0 | 1.7 | 0.00 | 0.00 | 0.00 | 43 | 1008.1 |
| 20260506041936 | 71 | 337 | 0.0 | 1.7 | 0.00 | 0.00 | 0.00 | 43 | 1008.1 |
| 20260506041814 | 71 | 337 | 0.0 | 1.7 | 0.00 | 0.00 | 0.00 | 43 | 1008.1 |
| 20260506041732 | 71 | 337 | 0.0 | 1.7 | 0.00 | 0.00 | 0.00 | 43 | 1008.1 |
| 20260506041620 | 72 | 337 | 0.0 | 1.7 | 0.00 | 0.00 | 0.00 | 43 | 1008.1 |
| 20260506041518 | 72 | 337 | 0.0 | 1.7 | 0.00 | 0.00 | 0.00 | 43 | 1008.1 |
| 20260506041445 | 72 | 337 | 0.0 | 1.7 | 0.00 | 0.00 | 0.00 | 42 | 1008.1 |
| 20260506041319 | 72 | 337 | 0.0 | 1.7 | 0.00 | 0.00 | 0.00 | 42 | 1008.1 |
| 20260506041219 | 72 | 337 | 0.9 | 1.7 | 0.00 | 0.00 | 0.00 | 42 | 1008.0 |
| 20260506041124 | 72 | 337 | 0.9 | 1.7 | 0.00 | 0.00 | 0.00 | 41 | 1008.1 |
| 20260506041012 | 72 | 337 | 0.0 | 1.7 | 0.00 | 0.00 | 0.00 | 41 | 1008.1 |
| 20260506040939 | 72 | 337 | 0.0 | 2.6 | 0.00 | 0.00 | 0.00 | 41 | 1008.0 |
| 20260506040829 | 72 | 337 | 0.0 | 2.6 | 0.00 | 0.00 | 0.00 | 42 | 1008.0 |
| 20260506040747 | 72 | 337 | 0.0 | 3.5 | 0.00 | 0.00 | 0.00 | 41 | 1008.0 |
| 20260506040634 | 72 | 337 | 0.0 | 3.5 | 0.00 | 0.00 | 0.00 | 41 | 1008.0 |
| 20260506040559 | 72 | 337 | 0.9 | 4.3 | 0.00 | 0.00 | 0.00 | 41 | 1008.0 |
| 20260506040433 | 72 | 337 | 0.9 | 4.3 | 0.00 | 0.00 | 0.00 | 41 | 1008.0 |
| 20260506040317 | 72 | 337 | 0.9 | 4.3 | 0.00 | 0.00 | 0.00 | 41 | 1007.9 |
| 20260506040215 | 72 | 337 | 1.7 | 4.3 | 0.00 | 0.00 | 0.00 | 41 | 1007.9 |
| 20260506040142 | 72 | 337 | 1.7 | 4.3 | 0.00 | 0.00 | 0.00 | 41 | 1007.9 |
| 20260506040021 | 72 | 337 | 1.7 | 4.3 | 0.00 | 0.00 | 0.00 | 41 | 1007.9 |
| 20260506035919 | 72 | 337 | 1.7 | 4.3 | 0.00 | 0.00 | 0.00 | 41 | 1007.9 |
| 20260506035844 | 72 | 337 | 2.6 | 4.3 | 0.00 | 0.00 | 0.00 | 41 | 1007.9 |
| 20260506035730 | 72 | 337 | 2.6 | 4.3 | 0.00 | 0.00 | 0.00 | 41 | 1007.9 |
| 20260506035626 | 72 | 337 | 2.6 | 5.2 | 0.00 | 0.00 | 0.00 | 41 | 1007.9 |
| 20260506035521 | 72 | 341 | 2.6 | 5.2 | 0.00 | 0.00 | 0.00 | 41 | 1007.8 |
| 20260506035426 | 72 | 341 | 1.7 | 5.2 | 0.00 | 0.00 | 0.00 | 41 | 1007.8 |
| 20260506035335 | 72 | 341 | 1.7 | 5.2 | 0.00 | 0.00 | 0.00 | 41 | 1007.8 |
| 20260506035231 | 73 | 341 | 1.7 | 5.2 | 0.00 | 0.00 | 0.00 | 41 | 1007.8 |
| 20260506035126 | 73 | 343 | 2.6 | 5.2 | 0.00 | 0.00 | 0.00 | 41 | 1007.6 |
| 20260506035031 | 73 | 343 | 3.5 | 5.2 | 0.00 | 0.00 | 0.00 | 41 | 1007.6 |
| 20260506034930 | 73 | 344 | 3.5 | 5.2 | 0.00 | 0.00 | 0.00 | 41 | 1007.6 |
| 20260506034836 | 73 | 337 | 3.5 | 5.2 | 0.00 | 0.00 | 0.00 | 41 | 1007.6 |
| 20260506034719 | 73 | 356 | 2.6 | 5.2 | 0.00 | 0.00 | 0.00 | 41 | 1007.6 |
| 20260506034635 | 73 | 346 | 2.6 | 5.2 | 0.00 | 0.00 | 0.00 | 41 | 1007.6 |
| 20260506034519 | 73 | 346 | 2.6 | 5.2 | 0.00 | 0.00 | 0.00 | 40 | 1007.6 |
| 20260506034415 | 73 | 331 | 1.7 | 3.5 | 0.00 | 0.00 | 0.00 | 40 | 1007.5 |
| 20260506034322 | 73 | 329 | 1.7 | 3.5 | 0.00 | 0.00 | 0.00 | 40 | 1007.5 |
| 20260506034240 | 73 | 329 | 1.7 | 4.3 | 0.00 | 0.00 | 0.00 | 40 | 1007.5 |
| 20260506034123 | 73 | 329 | 1.7 | 4.3 | 0.00 | 0.00 | 0.00 | 40 | 1007.5 |
| 20260506034021 | 73 | 329 | 1.7 | 5.2 | 0.00 | 0.00 | 0.00 | 40 | 1007.5 |
| 20260506033931 | 73 | 327 | 1.7 | 5.2 | 0.00 | 0.00 | 0.00 | 40 | 1007.5 |
| 20260506033826 | 73 | 327 | 2.6 | 5.2 | 0.00 | 0.00 | 0.00 | 40 | 1007.4 |
| 20260506033731 | 73 | 327 | 2.6 | 5.2 | 0.00 | 0.00 | 0.00 | 40 | 1007.4 |
| 20260506033635 | 73 | 326 | 2.6 | 5.2 | 0.00 | 0.00 | 0.00 | 40 | 1007.4 |
| 20260506033530 | 73 | 325 | 2.6 | 5.2 | 0.00 | 0.00 | 0.00 | 40 | 1007.4 |
| 20260506033427 | 73 | 324 | 2.6 | 5.2 | 0.00 | 0.00 | 0.00 | 40 | 1007.4 |
| 20260506033334 | 74 | 324 | 2.6 | 5.2 | 0.00 | 0.00 | 0.00 | 40 | 1007.4 |
| 20260506033217 | 74 | 324 | 2.6 | 5.2 | 0.00 | 0.00 | 0.00 | 40 | 1007.3 |
| 20260506033113 | 74 | 327 | 2.6 | 5.2 | 0.00 | 0.00 | 0.00 | 39 | 1007.3 |
| 20260506033019 | 74 | 325 | 2.6 | 5.2 | 0.00 | 0.00 | 0.00 | 39 | 1007.3 |
| 20260506032915 | 74 | 323 | 2.6 | 5.2 | 0.00 | 0.00 | 0.00 | 39 | 1007.3 |
| 20260506032822 | 74 | 323 | 3.5 | 5.2 | 0.00 | 0.00 | 0.00 | 39 | 1007.3 |
| 20260506032721 | 74 | 332 | 3.5 | 5.2 | 0.00 | 0.00 | 0.00 | 39 | 1007.3 |
| 20260506032622 | 74 | 326 | 2.6 | 4.3 | 0.00 | 0.00 | 0.00 | 39 | 1007.2 |
| 20260506032528 | 74 | 325 | 2.6 | 4.3 | 0.00 | 0.00 | 0.00 | 39 | 1007.2 |
| 20260506032454 | 74 | 321 | 2.6 | 4.3 | 0.00 | 0.00 | 0.00 | 39 | 1007.2 |
| 20260506032329 | 74 | 319 | 2.6 | 3.5 | 0.00 | 0.00 | 0.00 | 39 | 1007.2 |
| 20260506032234 | 74 | 319 | 2.6 | 3.5 | 0.00 | 0.00 | 0.00 | 39 | 1007.2 |
| 20260506032132 | 74 | 316 | 1.7 | 3.5 | 0.00 | 0.00 | 0.00 | 39 | 1007.2 |
| 20260506032016 | 74 | 315 | 0.9 | 4.3 | 0.00 | 0.00 | 0.00 | 39 | 1007.2 |
| 20260506031913 | 74 | 314 | 1.7 | 7.0 | 0.00 | 0.00 | 0.00 | 39 | 1007.2 |
| 20260506031815 | 74 | 314 | 1.7 | 7.0 | 0.00 | 0.00 | 0.00 | 39 | 1007.2 |
| 20260506031724 | 74 | 314 | 1.7 | 7.0 | 0.00 | 0.00 | 0.00 | 39 | 1007.1 |
| 20260506031619 | 74 | 314 | 1.7 | 7.0 | 0.00 | 0.00 | 0.00 | 38 | 1007.2 |
| 20260506031544 | 75 | 313 | 0.9 | 7.0 | 0.00 | 0.00 | 0.00 | 38 | 1007.2 |
| 20260506031421 | 75 | 313 | 1.7 | 7.0 | 0.00 | 0.00 | 0.00 | 38 | 1007.2 |
| 20260506031327 | 75 | 313 | 1.7 | 7.0 | 0.00 | 0.00 | 0.00 | 38 | 1007.2 |
| 20260506031233 | 75 | 312 | 2.6 | 7.0 | 0.00 | 0.00 | 0.00 | 38 | 1007.1 |
| 20260506031147 | 75 | 312 | 4.3 | 7.8 | 0.00 | 0.00 | 0.00 | 38 | 1007.1 |
| 20260506031035 | 75 | 318 | 4.3 | 7.8 | 0.00 | 0.00 | 0.00 | 38 | 1007.1 |
| 20260506031000 | 75 | 300 | 2.6 | 8.7 | 0.00 | 0.00 | 0.00 | 38 | 1007.1 |
| 20260506030814 | 75 | 299 | 2.6 | 8.7 | 0.00 | 0.00 | 0.00 | 38 | 1007.2 |
| 20260506030714 | 75 | 300 | 3.5 | 8.7 | 0.00 | 0.00 | 0.00 | 38 | 1007.1 |
| 20260506030621 | 75 | 299 | 3.5 | 8.7 | 0.00 | 0.00 | 0.00 | 38 | 1007.1 |
| 20260506030535 | 75 | 299 | 5.2 | 8.7 | 0.00 | 0.00 | 0.00 | 38 | 1007.1 |
| 20260506030420 | 75 | 323 | 5.2 | 9.6 | 0.00 | 0.00 | 0.00 | 38 | 1007.0 |
| 20260506030319 | 75 | 321 | 5.2 | 9.6 | 0.00 | 0.00 | 0.00 | 38 | 1007.1 |
| 20260506030216 | 75 | 304 | 5.2 | 9.6 | 0.00 | 0.00 | 0.00 | 38 | 1007.1 |
| 20260506030118 | 75 | 354 | 4.3 | 9.6 | 0.00 | 0.00 | 0.00 | 38 | 1007.0 |
| 20260506030016 | 75 | 314 | 3.5 | 9.6 | 0.00 | 0.00 | 0.00 | 38 | 1007.1 |
| 20260506025921 | 75 | 314 | 4.3 | 9.6 | 0.00 | 0.00 | 0.00 | 38 | 1007.0 |
| 20260506025816 | 75 | 323 | 5.2 | 9.6 | 0.00 | 0.00 | 0.00 | 37 | 1007.0 |
| 20260506025727 | 75 | 325 | 6.1 | 9.6 | 0.00 | 0.00 | 0.00 | 37 | 1007.0 |
| 20260506025623 | 75 | 320 | 7.0 | 9.6 | 0.00 | 0.00 | 0.00 | 37 | 1007.0 |
| 20260506025521 | 75 | 312 | 6.1 | 9.6 | 0.00 | 0.00 | 0.00 | 37 | 1007.0 |
| 20260506025445 | 75 | 315 | 4.3 | 7.8 | 0.00 | 0.00 | 0.00 | 38 | 1007.0 |
| 20260506025330 | 75 | 309 | 3.5 | 7.8 | 0.00 | 0.00 | 0.00 | 37 | 1007.0 |
| 20260506025230 | 75 | 297 | 4.3 | 7.8 | 0.00 | 0.00 | 0.00 | 37 | 1007.0 |
| 20260506025125 | 75 | 310 | 4.3 | 7.8 | 0.00 | 0.00 | 0.00 | 37 | 1007.0 |
| 20260506025016 | 76 | 306 | 5.2 | 9.6 | 0.00 | 0.00 | 0.00 | 37 | 1007.0 |
| 20260506024914 | 76 | 310 | 4.3 | 9.6 | 0.00 | 0.00 | 0.00 | 37 | 1006.9 |
| 20260506024819 | 76 | 298 | 3.5 | 9.6 | 0.00 | 0.00 | 0.00 | 37 | 1006.9 |
| 20260506024748 | 76 | 298 | 2.6 | 9.6 | 0.00 | 0.00 | 0.00 | 37 | 1006.9 |
| 20260506024621 | 76 | 298 | 3.5 | 9.6 | 0.00 | 0.00 | 0.00 | 37 | 1007.0 |
| 20260506024547 | 76 | 319 | 3.5 | 9.6 | 0.00 | 0.00 | 0.00 | 37 | 1006.9 |
| 20260506024423 | 76 | 308 | 5.2 | 9.6 | 0.00 | 0.00 | 0.00 | 37 | 1006.9 |
| 20260506024320 | 76 | 308 | 5.2 | 9.6 | 0.00 | 0.00 | 0.00 | 37 | 1006.9 |
| 20260506024230 | 76 | 313 | 4.3 | 9.6 | 0.00 | 0.00 | 0.00 | 37 | 1006.9 |
| 20260506024158 | 76 | 289 | 4.3 | 9.6 | 0.00 | 0.00 | 0.00 | 36 | 1006.9 |
| 20260506024012 | 76 | 330 | 5.2 | 7.8 | 0.00 | 0.00 | 0.00 | 36 | 1006.9 |
| 20260506023938 | 76 | 331 | 5.2 | 7.8 | 0.00 | 0.00 | 0.00 | 36 | 1006.9 |
| 20260506023814 | 76 | 306 | 4.3 | 7.8 | 0.00 | 0.00 | 0.00 | 36 | 1006.9 |
| 20260506023741 | 76 | 289 | 4.3 | 7.8 | 0.00 | 0.00 | 0.00 | 36 | 1006.9 |
| 20260506023615 | 76 | 299 | 4.3 | 7.8 | 0.00 | 0.00 | 0.00 | 36 | 1006.9 |
| 20260506023526 | 76 | 298 | 4.3 | 8.7 | 0.00 | 0.00 | 0.00 | 36 | 1006.9 |
| 20260506023424 | 76 | 305 | 5.2 | 8.7 | 0.00 | 0.00 | 0.00 | 36 | 1006.9 |
| 20260506023321 | 77 | 306 | 5.2 | 8.7 | 0.00 | 0.00 | 0.00 | 36 | 1006.8 |
| 20260506023225 | 77 | 312 | 4.3 | 8.7 | 0.00 | 0.00 | 0.00 | 36 | 1006.8 |
| 20260506023150 | 77 | 312 | 4.3 | 8.7 | 0.00 | 0.00 | 0.00 | 36 | 1006.8 |
| 20260506023025 | 77 | 302 | 4.3 | 8.7 | 0.00 | 0.00 | 0.00 | 36 | 1006.8 |
| 20260506022951 | 77 | 308 | 5.2 | 8.7 | 0.00 | 0.00 | 0.00 | 35 | 1006.8 |
| 20260506022827 | 77 | 307 | 6.1 | 8.7 | 0.00 | 0.00 | 0.00 | 35 | 1006.8 |
| 20260506022739 | 77 | 302 | 5.2 | 8.7 | 0.00 | 0.00 | 0.00 | 35 | 1006.8 |
| 20260506022614 | 77 | 305 | 5.2 | 8.7 | 0.00 | 0.00 | 0.00 | 35 | 1006.7 |
| 20260506022541 | 77 | 306 | 5.2 | 9.6 | 0.00 | 0.00 | 0.00 | 35 | 1006.7 |
| 20260506022418 | 77 | 303 | 4.3 | 9.6 | 0.00 | 0.00 | 0.00 | 35 | 1006.7 |
| 20260506022315 | 77 | 312 | 3.5 | 9.6 | 0.00 | 0.00 | 0.00 | 35 | 1006.7 |
| 20260506022215 | 78 | 282 | 4.3 | 9.6 | 0.00 | 0.00 | 0.00 | 34 | 1006.7 |
| 20260506022123 | 78 | 331 | 4.3 | 9.6 | 0.00 | 0.00 | 0.00 | 34 | 1006.7 |
| 20260506022020 | 78 | 320 | 4.3 | 9.6 | 0.00 | 0.00 | 0.00 | 34 | 1006.7 |
| 20260506021918 | 78 | 304 | 4.3 | 9.6 | 0.00 | 0.00 | 0.00 | 34 | 1006.7 |
| 20260506021833 | 78 | 305 | 5.2 | 9.6 | 0.00 | 0.00 | 0.00 | 34 | 1006.7 |
| 20260506021729 | 78 | 356 | 7.0 | 9.6 | 0.00 | 0.00 | 0.00 | 34 | 1006.7 |
| 20260506021628 | 78 | 325 | 7.0 | 9.6 | 0.00 | 0.00 | 0.00 | 34 | 1006.7 |
| 20260506021552 | 78 | 302 | 7.0 | 13.9 | 0.00 | 0.00 | 0.00 | 34 | 1006.8 |
| 20260506021441 | 78 | 296 | 7.0 | 17.4 | 0.00 | 0.00 | 0.00 | 34 | 1006.7 |
| 20260506021318 | 78 | 321 | 5.2 | 17.4 | 0.00 | 0.00 | 0.00 | 34 | 1006.7 |
| 20260506021214 | 78 | 264 | 6.1 | 17.4 | 0.00 | 0.00 | 0.00 | 34 | 1006.7 |
| 20260506021118 | 78 | 298 | 5.2 | 17.4 | 0.00 | 0.00 | 0.00 | 33 | 1006.7 |
| 20260506021015 | 78 | 310 | 6.1 | 17.4 | 0.00 | 0.00 | 0.00 | 33 | 1006.7 |
| 20260506020921 | 78 | 308 | 6.1 | 17.4 | 0.00 | 0.00 | 0.00 | 33 | 1006.7 |
| 20260506020816 | 78 | 312 | 6.1 | 17.4 | 0.00 | 0.00 | 0.00 | 33 | 1006.7 |
| 20260506020729 | 78 | 352 | 7.8 | 17.4 | 0.00 | 0.00 | 0.00 | 33 | 1006.7 |
| 20260506020622 | 78 | 15 | 8.7 | 17.4 | 0.00 | 0.00 | 0.00 | 33 | 1006.5 |
| 20260506020549 | 78 | 10 | 5.2 | 11.3 | 0.00 | 0.00 | 0.00 | 31 | 1006.5 |
| 20260506020424 | 78 | 52 | 3.5 | 7.8 | 0.00 | 0.00 | 0.00 | 31 | 1006.6 |
| 20260506020327 | 78 | 10 | 3.5 | 7.8 | 0.00 | 0.00 | 0.00 | 31 | 1006.6 |
| 20260506020225 | 78 | 30 | 2.6 | 8.7 | 0.00 | 0.00 | 0.00 | 31 | 1006.6 |
| 20260506020153 | 78 | 71 | 1.7 | 8.7 | 0.00 | 0.00 | 0.00 | 31 | 1006.6 |
| 20260506020028 | 78 | 30 | 3.5 | 8.7 | 0.00 | 0.00 | 0.00 | 31 | 1006.6 |
| 20260506015937 | 78 | 15 | 4.3 | 8.7 | 0.00 | 0.00 | 0.00 | 31 | 1006.6 |
| 20260506015840 | 78 | 20 | 4.3 | 8.7 | 0.00 | 0.00 | 0.00 | 31 | 1006.6 |
| 20260506015739 | 79 | 40 | 3.5 | 8.7 | 0.00 | 0.00 | 0.00 | 31 | 1006.6 |
| 20260506015613 | 79 | 34 | 1.7 | 8.7 | 0.00 | 0.00 | 0.00 | 31 | 1006.6 |
| 20260506015539 | 79 | 40 | 3.5 | 8.7 | 0.00 | 0.00 | 0.00 | 31 | 1006.6 |
| 20260506015423 | 79 | 27 | 4.3 | 8.7 | 0.00 | 0.00 | 0.00 | 31 | 1006.6 |
| 20260506015320 | 79 | 15 | 4.3 | 8.7 | 0.00 | 0.00 | 0.00 | 31 | 1006.6 |
| 20260506015221 | 79 | 38 | 5.2 | 8.7 | 0.00 | 0.00 | 0.00 | 30 | 1006.6 |
| 20260506015130 | 79 | 21 | 5.2 | 8.7 | 0.00 | 0.00 | 0.00 | 30 | 1006.6 |
| 20260506015026 | 79 | 10 | 5.2 | 8.7 | 0.00 | 0.00 | 0.00 | 30 | 1006.6 |
| 20260506014923 | 79 | 50 | 4.3 | 7.8 | 0.00 | 0.00 | 0.00 | 30 | 1006.6 |
| 20260506014828 | 79 | 21 | 3.5 | 7.8 | 0.00 | 0.00 | 0.00 | 30 | 1006.6 |
| 20260506014725 | 79 | 38 | 2.6 | 7.8 | 0.00 | 0.00 | 0.00 | 30 | 1006.6 |
| 20260506014633 | 79 | 48 | 4.3 | 7.8 | 0.00 | 0.00 | 0.00 | 30 | 1006.6 |
| 20260506014514 | 79 | 353 | 4.3 | 7.8 | 0.00 | 0.00 | 0.00 | 30 | 1006.6 |
| 20260506014440 | 79 | 23 | 3.5 | 7.8 | 0.00 | 0.00 | 0.00 | 30 | 1006.6 |
| 20260506014318 | 79 | 24 | 4.3 | 7.8 | 0.00 | 0.00 | 0.00 | 30 | 1006.5 |
| 20260506014217 | 79 | 357 | 3.5 | 8.7 | 0.00 | 0.00 | 0.00 | 30 | 1006.5 |
| 20260506014141 | 79 | 67 | 3.5 | 8.7 | 0.00 | 0.00 | 0.00 | 30 | 1006.5 |
| 20260506014022 | 79 | 15 | 3.5 | 8.7 | 0.00 | 0.00 | 0.00 | 31 | 1006.5 |
| 20260506013916 | 79 | 5 | 3.5 | 10.4 | 0.00 | 0.00 | 0.00 | 30 | 1006.5 |
| 20260506013813 | 79 | 69 | 3.5 | 10.4 | 0.00 | 0.00 | 0.00 | 31 | 1006.5 |
| 20260506013744 | 79 | 43 | 2.6 | 10.4 | 0.00 | 0.00 | 0.00 | 31 | 1006.5 |
| 20260506013647 | 79 | 15 | 3.5 | 10.4 | 0.00 | 0.00 | 0.00 | 31 | 1006.5 |
| 20260506013524 | 79 | 10 | 3.5 | 10.4 | 0.00 | 0.00 | 0.00 | 30 | 1006.5 |
| 20260506013430 | 79 | 5 | 5.2 | 10.4 | 0.00 | 0.00 | 0.00 | 30 | 1006.5 |
| 20260506013325 | 79 | 337 | 6.1 | 10.4 | 0.00 | 0.00 | 0.00 | 30 | 1006.5 |
| 20260506013230 | 79 | 40 | 5.2 | 10.4 | 0.00 | 0.00 | 0.00 | 30 | 1006.5 |
| 20260506013128 | 79 | 5 | 5.2 | 11.3 | 0.00 | 0.00 | 0.00 | 30 | 1006.5 |
| 20260506013054 | 79 | 15 | 4.3 | 11.3 | 0.00 | 0.00 | 0.00 | 31 | 1006.5 |
| 20260506012913 | 79 | 33 | 2.6 | 11.3 | 0.00 | 0.00 | 0.00 | 30 | 1006.5 |
| 20260506012839 | 79 | 51 | 2.6 | 11.3 | 0.00 | 0.00 | 0.00 | 30 | 1006.5 |
| 20260506012735 | 79 | 29 | 4.3 | 11.3 | 0.00 | 0.00 | 0.00 | 30 | 1006.5 |
| 20260506012642 | 79 | 34 | 5.2 | 11.3 | 0.00 | 0.00 | 0.00 | 30 | 1006.5 |
| 20260506012518 | 79 | 10 | 6.1 | 11.3 | 0.00 | 0.00 | 0.00 | 30 | 1006.5 |
| 20260506012414 | 79 | 46 | 7.0 | 11.3 | 0.00 | 0.00 | 0.00 | 30 | 1006.5 |
| 20260506012325 | 80 | 19 | 6.1 | 11.3 | 0.00 | 0.00 | 0.00 | 30 | 1006.4 |
| 20260506012221 | 80 | 37 | 4.3 | 11.3 | 0.00 | 0.00 | 0.00 | 29 | 1006.4 |
| 20260506012128 | 80 | 335 | 4.3 | 11.3 | 0.00 | 0.00 | 0.00 | 29 | 1006.4 |
| 20260506012025 | 80 | 333 | 5.2 | 11.3 | 0.00 | 0.00 | 0.00 | 29 | 1006.4 |
| 20260506011952 | 80 | 347 | 6.1 | 11.3 | 0.00 | 0.00 | 0.00 | 29 | 1006.4 |
| 20260506011828 | 80 | 23 | 6.1 | 11.3 | 0.00 | 0.00 | 0.00 | 30 | 1006.5 |
| 20260506011735 | 80 | 19 | 4.3 | 12.2 | 0.00 | 0.00 | 0.00 | 29 | 1006.4 |
| 20260506011613 | 80 | 15 | 4.3 | 12.2 | 0.00 | 0.00 | 0.00 | 29 | 1006.4 |
| 20260506011539 | 80 | 19 | 4.3 | 12.2 | 0.00 | 0.00 | 0.00 | 29 | 1006.4 |
| 20260506011434 | 80 | 10 | 5.2 | 12.2 | 0.00 | 0.00 | 0.00 | 30 | 1006.5 |
| 20260506011339 | 80 | 10 | 6.1 | 12.2 | 0.00 | 0.00 | 0.00 | 30 | 1006.5 |
| 20260506011216 | 80 | 15 | 5.2 | 12.2 | 0.00 | 0.00 | 0.00 | 30 | 1006.5 |
| 20260506011119 | 80 | 351 | 5.2 | 12.2 | 0.00 | 0.00 | 0.00 | 30 | 1006.5 |
| 20260506011017 | 80 | 15 | 7.8 | 12.2 | 0.00 | 0.00 | 0.00 | 30 | 1006.5 |
| 20260506010924 | 81 | 44 | 7.8 | 12.2 | 0.00 | 0.00 | 0.00 | 30 | 1006.5 |
| 20260506010824 | 81 | 5 | 6.1 | 12.2 | 0.00 | 0.00 | 0.00 | 29 | 1006.5 |
| 20260506010731 | 81 | 66 | 5.2 | 10.4 | 0.00 | 0.00 | 0.00 | 29 | 1006.5 |
| 20260506010631 | 81 | 34 | 3.5 | 10.4 | 0.00 | 0.00 | 0.00 | 29 | 1006.5 |
| 20260506010533 | 81 | 59 | 3.5 | 10.4 | 0.00 | 0.00 | 0.00 | 30 | 1006.4 |
| 20260506010431 | 81 | 39 | 4.3 | 10.4 | 0.00 | 0.00 | 0.00 | 29 | 1006.4 |
| 20260506010328 | 81 | 42 | 4.3 | 10.4 | 0.00 | 0.00 | 0.00 | 30 | 1006.4 |
| 20260506010220 | 81 | 44 | 3.5 | 10.4 | 0.00 | 0.00 | 0.00 | 29 | 1006.4 |
| 20260506010115 | 81 | 350 | 4.3 | 10.4 | 0.00 | 0.00 | 0.00 | 29 | 1006.4 |
| 20260506010013 | 81 | 79 | 5.2 | 10.4 | 0.00 | 0.00 | 0.00 | 29 | 1006.4 |
| 20260506005920 | 81 | 32 | 5.2 | 11.3 | 0.00 | 0.00 | 0.00 | 29 | 1006.4 |
| 20260506005818 | 81 | 22 | 4.3 | 11.3 | 0.00 | 0.00 | 0.00 | 29 | 1006.4 |
| 20260506005725 | 81 | 5 | 3.5 | 11.3 | 0.00 | 0.00 | 0.00 | 29 | 1006.4 |
| 20260506005620 | 81 | 33 | 4.3 | 11.3 | 0.00 | 0.00 | 0.00 | 30 | 1006.4 |
| 20260506005529 | 81 | 29 | 3.5 | 11.3 | 0.00 | 0.00 | 0.00 | 30 | 1006.4 |
| 20260506005427 | 81 | 38 | 3.5 | 11.3 | 0.00 | 0.00 | 0.00 | 29 | 1006.4 |
| 20260506005334 | 81 | 30 | 5.2 | 11.3 | 0.00 | 0.00 | 0.00 | 29 | 1006.4 |
| 20260506005229 | 81 | 337 | 7.0 | 11.3 | 0.00 | 0.00 | 0.00 | 29 | 1006.4 |
| 20260506005138 | 81 | 28 | 7.8 | 11.3 | 0.00 | 0.00 | 0.00 | 29 | 1006.4 |
| 20260506005040 | 81 | 333 | 7.0 | 11.3 | 0.00 | 0.00 | 0.00 | 30 | 1006.4 |
| 20260506004937 | 81 | 329 | 4.3 | 12.2 | 0.00 | 0.00 | 0.00 | 30 | 1006.4 |
| 20260506004814 | 81 | 326 | 4.3 | 12.2 | 0.00 | 0.00 | 0.00 | 30 | 1006.4 |
| 20260506004725 | 81 | 331 | 4.3 | 12.2 | 0.00 | 0.00 | 0.00 | 30 | 1006.4 |
| 20260506004619 | 81 | 306 | 5.2 | 12.2 | 0.00 | 0.00 | 0.00 | 30 | 1006.4 |
| 20260506004524 | 81 | 315 | 6.1 | 12.2 | 0.00 | 0.00 | 0.00 | 30 | 1006.3 |
| 20260506004419 | 81 | 353 | 4.3 | 12.2 | 0.00 | 0.00 | 0.00 | 30 | 1006.3 |
| 20260506004326 | 81 | 26 | 5.2 | 12.2 | 0.00 | 0.00 | 0.00 | 30 | 1006.3 |
| 20260506004222 | 81 | 38 | 7.8 | 12.2 | 0.00 | 0.00 | 0.00 | 30 | 1006.3 |
| 20260506004130 | 81 | 20 | 8.7 | 12.2 | 0.00 | 0.00 | 0.00 | 30 | 1006.3 |
| 20260506004035 | 81 | 15 | 8.7 | 12.2 | 0.00 | 0.00 | 0.00 | 30 | 1006.3 |
| 20260506003912 | 81 | 10 | 5.2 | 12.2 | 0.00 | 0.00 | 0.00 | 30 | 1006.3 |
| 20260506003829 | 81 | 349 | 3.5 | 12.2 | 0.00 | 0.00 | 0.00 | 31 | 1006.3 |
| 20260506003737 | 81 | 42 | 3.5 | 12.2 | 0.00 | 0.00 | 0.00 | 30 | 1006.2 |
| 20260506003612 | 81 | 38 | 5.2 | 12.2 | 0.00 | 0.00 | 0.00 | 30 | 1006.2 |
| 20260506003517 | 81 | 29 | 7.0 | 12.2 | 0.00 | 0.00 | 0.00 | 30 | 1006.3 |
| 20260506003414 | 80 | 27 | 7.0 | 12.2 | 0.00 | 0.00 | 0.00 | 31 | 1006.2 |
| 20260506003344 | 80 | 356 | 4.3 | 11.3 | 0.00 | 0.00 | 0.00 | 31 | 1006.3 |
| 20260506003221 | 80 | 21 | 3.5 | 11.3 | 0.00 | 0.00 | 0.00 | 30 | 1006.2 |
| 20260506003150 | 80 | 337 | 4.3 | 11.3 | 0.00 | 0.00 | 0.00 | 30 | 1006.2 |
| 20260506003024 | 80 | 10 | 4.3 | 11.3 | 0.00 | 0.00 | 0.00 | 30 | 1006.3 |
| 20260506002930 | 81 | 328 | 4.3 | 11.3 | 0.00 | 0.00 | 0.00 | 30 | 1006.3 |
| 20260506002856 | 81 | 325 | 6.1 | 11.3 | 0.00 | 0.00 | 0.00 | 30 | 1006.3 |
| 20260506002714 | 81 | 353 | 6.1 | 11.3 | 0.00 | 0.00 | 0.00 | 30 | 1006.4 |
| 20260506002613 | 81 | 348 | 7.0 | 11.3 | 0.00 | 0.00 | 0.00 | 30 | 1006.4 |
| 20260506002538 | 81 | 44 | 7.0 | 11.3 | 0.00 | 0.00 | 0.00 | 31 | 1006.4 |
| 20260506002416 | 81 | 15 | 6.1 | 10.4 | 0.00 | 0.00 | 0.00 | 30 | 1006.3 |
| 20260506002313 | 81 | 15 | 3.5 | 10.4 | 0.00 | 0.00 | 0.00 | 30 | 1006.3 |
| 20260506002220 | 81 | 337 | 3.5 | 10.4 | 0.00 | 0.00 | 0.00 | 30 | 1006.3 |
| 20260506002115 | 81 | 346 | 5.2 | 10.4 | 0.00 | 0.00 | 0.00 | 30 | 1006.3 |
| 20260506002020 | 81 | 5 | 5.2 | 10.4 | 0.00 | 0.00 | 0.00 | 30 | 1006.3 |
| 20260506001921 | 81 | 339 | 6.1 | 10.4 | 0.00 | 0.00 | 0.00 | 29 | 1006.3 |
| 20260506001828 | 81 | 357 | 7.0 | 10.4 | 0.00 | 0.00 | 0.00 | 29 | 1006.3 |
| 20260506001723 | 81 | 331 | 5.2 | 10.4 | 0.00 | 0.00 | 0.00 | 29 | 1006.3 |
| 20260506001631 | 82 | 312 | 3.5 | 10.4 | 0.00 | 0.00 | 0.00 | 29 | 1006.3 |
| 20260506001527 | 82 | 15 | 3.5 | 10.4 | 0.00 | 0.00 | 0.00 | 29 | 1006.3 |
| 20260506001431 | 82 | 350 | 4.3 | 10.4 | 0.00 | 0.00 | 0.00 | 29 | 1006.2 |
| 20260506001328 | 82 | 344 | 5.2 | 10.4 | 0.00 | 0.00 | 0.00 | 28 | 1006.2 |
| 20260506001239 | 82 | 29 | 4.3 | 10.4 | 0.00 | 0.00 | 0.00 | 29 | 1006.2 |
| 20260506001115 | 82 | 15 | 3.5 | 10.4 | 0.00 | 0.00 | 0.00 | 29 | 1006.2 |
| 20260506001012 | 82 | 50 | 4.3 | 10.4 | 0.00 | 0.00 | 0.00 | 29 | 1006.3 |
| 20260506000918 | 82 | 15 | 5.2 | 10.4 | 0.00 | 0.00 | 0.00 | 29 | 1006.3 |
| 20260506000815 | 82 | 15 | 4.3 | 10.4 | 0.00 | 0.00 | 0.00 | 29 | 1006.3 |
| 20260506000743 | 82 | 30 | 2.6 | 10.4 | 0.00 | 0.00 | 0.00 | 30 | 1006.2 |
| 20260506000618 | 82 | 102 | 1.7 | 10.4 | 0.00 | 0.00 | 0.00 | 29 | 1006.2 |
| 20260506000528 | 82 | 46 | 2.6 | 10.4 | 0.00 | 0.00 | 0.00 | 29 | 1006.2 |
| 20260506000425 | 82 | 66 | 4.3 | 10.4 | 0.00 | 0.00 | 0.00 | 30 | 1006.2 |
| 20260506000332 | 82 | 54 | 6.1 | 10.4 | 0.00 | 0.00 | 0.00 | 30 | 1006.2 |
| 20260506000229 | 82 | 45 | 4.3 | 10.4 | 0.00 | 0.00 | 0.00 | 30 | 1006.2 |
| 20260506000136 | 82 | 51 | 2.6 | 10.4 | 0.00 | 0.00 | 0.00 | 29 | 1006.2 |
| 20260506000032 | 82 | 53 | 1.7 | 8.7 | 0.00 | 0.00 | 0.00 | 29 | 1006.3 |
| 20260505235959 | 82 | 53 | 2.6 | 8.7 | 0.00 | 0.00 | 0.00 | 29 | 1006.2 |
| 20260505235820 | 82 | 27 | 1.7 | 8.7 | 0.00 | 0.00 | 0.00 | 29 | 1006.3 |
| 20260505235719 | 82 | 1 | 2.6 | 11.3 | 0.00 | 0.00 | 0.00 | 29 | 1006.2 |
| 20260505235624 | 82 | 44 | 3.5 | 11.3 | 0.00 | 0.00 | 0.00 | 30 | 1006.3 |
| 20260505235522 | 82 | 33 | 4.3 | 11.3 | 0.00 | 0.00 | 0.00 | 29 | 1006.3 |
| 20260505235449 | 82 | 354 | 3.5 | 11.3 | 0.00 | 0.00 | 0.00 | 29 | 1006.3 |
| 20260505235324 | 82 | 10 | 4.3 | 11.3 | 0.00 | 0.00 | 0.00 | 29 | 1006.2 |
| 20260505235230 | 82 | 19 | 5.2 | 11.3 | 0.00 | 0.00 | 0.00 | 30 | 1006.2 |
| 20260505235133 | 82 | 352 | 5.2 | 11.3 | 0.00 | 0.00 | 0.00 | 29 | 1006.2 |
| 20260505235026 | 82 | 21 | 6.1 | 12.2 | 0.00 | 0.00 | 0.00 | 29 | 1006.3 |
| 20260505234928 | 82 | 26 | 7.0 | 12.2 | 0.00 | 0.00 | 0.00 | 29 | 1006.3 |
| 20260505234855 | 82 | 50 | 7.0 | 14.8 | 0.00 | 0.00 | 0.00 | 29 | 1006.4 |
| 20260505234730 | 82 | 15 | 7.0 | 14.8 | 0.00 | 0.00 | 0.00 | 29 | 1006.4 |
| 20260505234629 | 82 | 22 | 5.2 | 14.8 | 0.00 | 0.00 | 0.00 | 29 | 1006.4 |
| 20260505234515 | 82 | 23 | 3.5 | 14.8 | 0.00 | 0.00 | 0.00 | 29 | 1006.3 |
| 20260505234412 | 82 | 356 | 4.3 | 14.8 | 0.00 | 0.00 | 0.00 | 29 | 1006.4 |
| 20260505234339 | 82 | 19 | 6.1 | 14.8 | 0.00 | 0.00 | 0.00 | 29 | 1006.4 |
| 20260505234217 | 82 | 43 | 7.0 | 14.8 | 0.00 | 0.00 | 0.00 | 29 | 1006.4 |
| 20260505234113 | 82 | 39 | 8.7 | 14.8 | 0.00 | 0.00 | 0.00 | 29 | 1006.4 |
| 20260505234017 | 82 | 28 | 8.7 | 14.8 | 0.00 | 0.00 | 0.00 | 29 | 1006.4 |
| 20260505233913 | 82 | 15 | 6.1 | 13.9 | 0.00 | 0.00 | 0.00 | 29 | 1006.3 |
| 20260505233823 | 82 | 48 | 4.3 | 11.3 | 0.00 | 0.00 | 0.00 | 29 | 1006.3 |
| 20260505233752 | 82 | 67 | 5.2 | 11.3 | 0.00 | 0.00 | 0.00 | 29 | 1006.3 |
| 20260505233626 | 82 | 38 | 7.0 | 11.3 | 0.00 | 0.00 | 0.00 | 29 | 1006.4 |
| 20260505233550 | 82 | 5 | 6.1 | 11.3 | 0.00 | 0.00 | 0.00 | 29 | 1006.4 |
| 20260505233427 | 82 | 356 | 7.0 | 11.3 | 0.00 | 0.00 | 0.00 | 29 | 1006.3 |
| 20260505233333 | 82 | 356 | 6.1 | 11.3 | 0.00 | 0.00 | 0.00 | 30 | 1006.4 |
| 20260505233229 | 82 | 351 | 4.3 | 11.3 | 0.00 | 0.00 | 0.00 | 30 | 1006.4 |
| 20260505233122 | 82 | 339 | 3.5 | 11.3 | 0.00 | 0.00 | 0.00 | 30 | 1006.4 |
| 20260505233032 | 82 | 23 | 2.6 | 11.3 | 0.00 | 0.00 | 0.00 | 29 | 1006.4 |
| 20260505232929 | 82 | 51 | 1.7 | 11.3 | 0.00 | 0.00 | 0.00 | 29 | 1006.4 |
| 20260505232834 | 82 | 51 | 2.6 | 12.2 | 0.00 | 0.00 | 0.00 | 29 | 1006.4 |
| 20260505232747 | 82 | 67 | 3.5 | 13.0 | 0.00 | 0.00 | 0.00 | 29 | 1006.4 |
| 20260505232631 | 82 | 44 | 5.2 | 13.0 | 0.00 | 0.00 | 0.00 | 29 | 1006.4 |
| 20260505232551 | 82 | 72 | 7.0 | 13.0 | 0.00 | 0.00 | 0.00 | 29 | 1006.4 |
| 20260505232421 | 82 | 35 | 7.0 | 13.0 | 0.00 | 0.00 | 0.00 | 29 | 1006.5 |
| 20260505232340 | 82 | 20 | 7.0 | 13.0 | 0.00 | 0.00 | 0.00 | 29 | 1006.5 |
| 20260505232236 | 82 | 331 | 7.0 | 13.0 | 0.00 | 0.00 | 0.00 | 29 | 1006.4 |
| 20260505232137 | 82 | 5 | 7.8 | 13.0 | 0.00 | 0.00 | 0.00 | 29 | 1006.5 |
| 20260505232021 | 82 | 357 | 7.8 | 13.0 | 0.00 | 0.00 | 0.00 | 29 | 1006.4 |
| 20260505231925 | 82 | 351 | 7.8 | 13.0 | 0.00 | 0.00 | 0.00 | 29 | 1006.4 |
| 20260505231830 | 82 | 10 | 5.2 | 12.2 | 0.00 | 0.00 | 0.00 | 30 | 1006.4 |
| 20260505231728 | 82 | 50 | 5.2 | 12.2 | 0.00 | 0.00 | 0.00 | 29 | 1006.4 |
| 20260505231623 | 82 | 31 | 6.1 | 12.2 | 0.00 | 0.00 | 0.00 | 29 | 1006.3 |
| 20260505231529 | 82 | 61 | 6.1 | 11.3 | 0.00 | 0.00 | 0.00 | 28 | 1006.3 |
| 20260505231426 | 82 | 83 | 7.0 | 11.3 | 0.00 | 0.00 | 0.00 | 29 | 1006.4 |
| 20260505231335 | 82 | 360 | 6.1 | 10.4 | 0.00 | 0.00 | 0.00 | 28 | 1006.4 |
| 20260505231231 | 82 | 19 | 5.2 | 10.4 | 0.00 | 0.00 | 0.00 | 28 | 1006.4 |
| 20260505231138 | 82 | 323 | 5.2 | 10.4 | 0.00 | 0.00 | 0.00 | 28 | 1006.4 |
| 20260505231034 | 82 | 10 | 4.3 | 10.4 | 0.00 | 0.00 | 0.00 | 28 | 1006.5 |
| 20260505230939 | 82 | 10 | 3.5 | 12.2 | 0.00 | 0.00 | 0.00 | 29 | 1006.5 |
| 20260505230816 | 82 | 15 | 4.3 | 12.2 | 0.00 | 0.00 | 0.00 | 28 | 1006.5 |
| 20260505230717 | 82 | 333 | 5.2 | 12.2 | 0.00 | 0.00 | 0.00 | 28 | 1006.5 |
| 20260505230622 | 82 | 23 | 5.2 | 12.2 | 0.00 | 0.00 | 0.00 | 28 | 1006.5 |
| 20260505230518 | 82 | 25 | 7.0 | 12.2 | 0.00 | 0.00 | 0.00 | 29 | 1006.5 |
| 20260505230424 | 82 | 33 | 6.1 | 12.2 | 0.00 | 0.00 | 0.00 | 29 | 1006.5 |
| 20260505230316 | 82 | 36 | 5.2 | 12.2 | 0.00 | 0.00 | 0.00 | 28 | 1006.5 |
| 20260505230224 | 82 | 15 | 7.0 | 12.2 | 0.00 | 0.00 | 0.00 | 28 | 1006.5 |
| 20260505230126 | 82 | 345 | 7.0 | 12.2 | 0.00 | 0.00 | 0.00 | 28 | 1006.5 |
| 20260505230044 | 82 | 5 | 6.1 | 12.2 | 0.00 | 0.00 | 0.00 | 29 | 1006.5 |
| 20260505225927 | 82 | 51 | 6.1 | 12.2 | 0.00 | 0.00 | 0.00 | 29 | 1006.5 |
| 20260505225829 | 82 | 19 | 4.3 | 12.2 | 0.00 | 0.00 | 0.00 | 29 | 1006.5 |
| 20260505225734 | 82 | 27 | 4.3 | 12.2 | 0.00 | 0.00 | 0.00 | 28 | 1006.5 |
| 20260505225632 | 82 | 63 | 4.3 | 12.2 | 0.00 | 0.00 | 0.00 | 28 | 1006.5 |
| 20260505225536 | 82 | 36 | 4.3 | 12.2 | 0.00 | 0.00 | 0.00 | 28 | 1006.5 |
| 20260505225412 | 82 | 69 | 8.7 | 12.2 | 0.00 | 0.00 | 0.00 | 30 | 1006.6 |
| 20260505225328 | 82 | 61 | 9.6 | 12.2 | 0.00 | 0.00 | 0.00 | 29 | 1006.6 |
| 20260505225242 | 82 | 71 | 8.7 | 12.2 | 0.00 | 0.00 | 0.00 | 29 | 1006.6 |
| 20260505225113 | 83 | 37 | 6.1 | 13.0 | 0.00 | 0.00 | 0.00 | 29 | 1006.5 |
| 20260505225040 | 83 | 358 | 5.2 | 13.0 | 0.00 | 0.00 | 0.00 | 29 | 1006.5 |
| 20260505224916 | 83 | 26 | 3.5 | 13.0 | 0.00 | 0.00 | 0.00 | 29 | 1006.5 |
| 20260505224813 | 83 | 63 | 5.2 | 13.0 | 0.00 | 0.00 | 0.00 | 29 | 1006.5 |
| 20260505224722 | 83 | 63 | 7.0 | 13.0 | 0.00 | 0.00 | 0.00 | 29 | 1006.6 |
| 20260505224622 | 83 | 59 | 7.0 | 13.0 | 0.00 | 0.00 | 0.00 | 29 | 1006.6 |
| 20260505224517 | 83 | 355 | 6.1 | 13.0 | 0.00 | 0.00 | 0.00 | 30 | 1006.6 |
| 20260505224419 | 83 | 65 | 7.8 | 13.0 | 0.00 | 0.00 | 0.00 | 30 | 1006.6 |
| 20260505224325 | 83 | 59 | 7.8 | 13.0 | 0.00 | 0.00 | 0.00 | 29 | 1006.6 |
| 20260505224242 | 83 | 23 | 5.2 | 13.0 | 0.00 | 0.00 | 0.00 | 29 | 1006.6 |
| 20260505224126 | 83 | 55 | 4.3 | 13.0 | 0.00 | 0.00 | 0.00 | 29 | 1006.6 |
| 20260505224019 | 83 | 36 | 3.5 | 15.6 | 0.00 | 0.00 | 0.00 | 29 | 1006.6 |
| 20260505223926 | 83 | 102 | 3.5 | 15.6 | 0.00 | 0.00 | 0.00 | 29 | 1006.7 |
| 20260505223825 | 83 | 19 | 4.3 | 15.6 | 0.00 | 0.00 | 0.00 | 28 | 1006.6 |
| 20260505223722 | 83 | 38 | 4.3 | 15.6 | 0.00 | 0.00 | 0.00 | 29 | 1006.7 |
| 20260505223626 | 83 | 10 | 3.5 | 15.6 | 0.00 | 0.00 | 0.00 | 29 | 1006.7 |
| 20260505223520 | 83 | 356 | 4.3 | 15.6 | 0.00 | 0.00 | 0.00 | 28 | 1006.6 |
| 20260505223445 | 83 | 356 | 7.0 | 15.6 | 0.00 | 0.00 | 0.00 | 29 | 1006.6 |
| 20260505223408 | 83 | 19 | 7.8 | 15.6 | 0.00 | 0.00 | 0.00 | 29 | 1006.7 |
| 20260505223304 | 83 | 21 | 7.0 | 15.6 | 0.00 | 0.00 | 0.00 | 29 | 1006.6 |
| 20260505223121 | 83 | 25 | 4.3 | 10.4 | 0.00 | 0.00 | 0.00 | 29 | 1006.6 |
| 20260505223037 | 83 | 10 | 4.3 | 9.6 | 0.00 | 0.00 | 0.00 | 29 | 1006.6 |
| 20260505222941 | 83 | 42 | 5.2 | 9.6 | 0.00 | 0.00 | 0.00 | 29 | 1006.6 |
| 20260505222826 | 83 | 212 | 4.3 | 9.6 | 0.00 | 0.00 | 0.00 | 29 | 1006.6 |
| 20260505222723 | 83 | 60 | 3.5 | 9.6 | 0.00 | 0.00 | 0.00 | 30 | 1006.6 |
| 20260505222619 | 83 | 71 | 3.5 | 9.6 | 0.00 | 0.00 | 0.00 | 31 | 1006.6 |
| 20260505222526 | 82 | 95 | 3.5 | 9.6 | 0.00 | 0.00 | 0.00 | 31 | 1006.6 |
| 20260505222431 | 82 | 81 | 3.5 | 9.6 | 0.00 | 0.00 | 0.00 | 30 | 1006.6 |
| 20260505222312 | 82 | 61 | 3.5 | 9.6 | 0.00 | 0.00 | 0.00 | 30 | 1006.7 |
| 20260505222241 | 82 | 67 | 4.3 | 9.6 | 0.00 | 0.00 | 0.00 | 30 | 1006.7 |
| 20260505222116 | 82 | 44 | 3.5 | 10.4 | 0.00 | 0.00 | 0.00 | 30 | 1006.7 |
| 20260505222034 | 82 | 106 | 2.6 | 10.4 | 0.00 | 0.00 | 0.00 | 30 | 1006.7 |
| 20260505221920 | 82 | 46 | 3.5 | 10.4 | 0.00 | 0.00 | 0.00 | 30 | 1006.7 |
| 20260505221818 | 82 | 357 | 4.3 | 10.4 | 0.00 | 0.00 | 0.00 | 30 | 1006.7 |
| 20260505221723 | 82 | 51 | 5.2 | 10.4 | 0.00 | 0.00 | 0.00 | 29 | 1006.7 |
| 20260505221622 | 82 | 5 | 4.3 | 10.4 | 0.00 | 0.00 | 0.00 | 30 | 1006.7 |
| 20260505221519 | 82 | 30 | 5.2 | 10.4 | 0.00 | 0.00 | 0.00 | 29 | 1006.7 |
| 20260505221426 | 82 | 15 | 7.0 | 10.4 | 0.00 | 0.00 | 0.00 | 28 | 1006.7 |
| 20260505221323 | 82 | 345 | 7.0 | 10.4 | 0.00 | 0.00 | 0.00 | 28 | 1006.7 |
| 20260505221232 | 82 | 5 | 6.1 | 10.4 | 0.00 | 0.00 | 0.00 | 28 | 1006.7 |
| 20260505221126 | 82 | 341 | 5.2 | 10.4 | 0.00 | 0.00 | 0.00 | 28 | 1006.7 |
| 20260505221026 | 82 | 5 | 6.1 | 12.2 | 0.00 | 0.00 | 0.00 | 27 | 1006.7 |
| 20260505220913 | 82 | 15 | 5.2 | 12.2 | 0.00 | 0.00 | 0.00 | 28 | 1006.8 |
| 20260505220830 | 82 | 54 | 4.3 | 12.2 | 0.00 | 0.00 | 0.00 | 27 | 1006.8 |
| 20260505220734 | 82 | 73 | 3.5 | 12.2 | 0.00 | 0.00 | 0.00 | 29 | 1006.8 |
| 20260505220643 | 82 | 46 | 4.3 | 12.2 | 0.00 | 0.00 | 0.00 | 29 | 1006.8 |
| 20260505220517 | 82 | 69 | 3.5 | 12.2 | 0.00 | 0.00 | 0.00 | 28 | 1006.8 |
| 20260505220414 | 82 | 10 | 2.6 | 12.2 | 0.00 | 0.00 | 0.00 | 27 | 1006.8 |
| 20260505220315 | 82 | 355 | 5.2 | 12.2 | 0.00 | 0.00 | 0.00 | 27 | 1006.8 |
| 20260505220242 | 82 | 325 | 6.1 | 12.2 | 0.00 | 0.00 | 0.00 | 27 | 1006.9 |
| 20260505220125 | 82 | 44 | 5.2 | 12.2 | 0.00 | 0.00 | 0.00 | 27 | 1006.8 |
| 20260505220021 | 82 | 66 | 2.6 | 8.7 | 0.00 | 0.00 | 0.00 | 27 | 1006.8 |
| 20260505215926 | 82 | 92 | 3.5 | 8.7 | 0.00 | 0.00 | 0.00 | 28 | 1006.8 |
| 20260505215823 | 82 | 40 | 3.5 | 8.7 | 0.00 | 0.00 | 0.00 | 28 | 1006.8 |
| 20260505215749 | 82 | 96 | 3.5 | 8.7 | 0.00 | 0.00 | 0.00 | 28 | 1006.8 |
| 20260505215636 | 82 | 23 | 3.5 | 8.7 | 0.00 | 0.00 | 0.00 | 28 | 1006.8 |
| 20260505215535 | 82 | 327 | 3.5 | 8.7 | 0.00 | 0.00 | 0.00 | 28 | 1006.9 |
| 20260505215420 | 82 | 60 | 4.3 | 8.7 | 0.00 | 0.00 | 0.00 | 29 | 1006.9 |
| 20260505215336 | 82 | 92 | 4.3 | 8.7 | 0.00 | 0.00 | 0.00 | 28 | 1006.9 |
| 20260505215223 | 82 | 51 | 3.5 | 9.6 | 0.00 | 0.00 | 0.00 | 27 | 1006.9 |
| 20260505215119 | 82 | 46 | 2.6 | 9.6 | 0.00 | 0.00 | 0.00 | 30 | 1006.9 |
| 20260505215014 | 82 | 31 | 2.6 | 9.6 | 0.00 | 0.00 | 0.00 | 29 | 1006.9 |
| 20260505214921 | 82 | 32 | 3.5 | 9.6 | 0.00 | 0.00 | 0.00 | 29 | 1006.9 |
| 20260505214822 | 82 | 48 | 4.3 | 9.6 | 0.00 | 0.00 | 0.00 | 30 | 1006.9 |
| 20260505214730 | 82 | 77 | 3.5 | 9.6 | 0.00 | 0.00 | 0.00 | 30 | 1006.9 |
| 20260505214626 | 81 | 51 | 2.6 | 9.6 | 0.00 | 0.00 | 0.00 | 30 | 1006.8 |
| 20260505214531 | 81 | 70 | 3.5 | 9.6 | 0.00 | 0.00 | 0.00 | 29 | 1006.9 |
| 20260505214429 | 81 | 15 | 5.2 | 9.6 | 0.00 | 0.00 | 0.00 | 30 | 1006.9 |
| 20260505214327 | 81 | 53 | 4.3 | 9.6 | 0.00 | 0.00 | 0.00 | 29 | 1006.9 |
| 20260505214219 | 81 | 332 | 3.5 | 9.6 | 0.00 | 0.00 | 0.00 | 30 | 1006.9 |
| 20260505214112 | 81 | 30 | 5.2 | 9.6 | 0.00 | 0.00 | 0.00 | 30 | 1006.9 |
| 20260505214039 | 81 | 69 | 4.3 | 10.4 | 0.00 | 0.00 | 0.00 | 29 | 1006.9 |
| 20260505213916 | 81 | 52 | 6.1 | 11.3 | 0.00 | 0.00 | 0.00 | 31 | 1006.9 |
| 20260505213814 | 81 | 20 | 5.2 | 11.3 | 0.00 | 0.00 | 0.00 | 30 | 1007.0 |
| 20260505213742 | 81 | 36 | 3.5 | 11.3 | 0.00 | 0.00 | 0.00 | 30 | 1006.9 |
| 20260505213617 | 81 | 31 | 3.5 | 11.3 | 0.00 | 0.00 | 0.00 | 30 | 1006.9 |
| 20260505213528 | 81 | 35 | 3.5 | 11.3 | 0.00 | 0.00 | 0.00 | 30 | 1006.9 |
| 20260505213446 | 81 | 15 | 5.2 | 11.3 | 0.00 | 0.00 | 0.00 | 30 | 1006.9 |
| 20260505213330 | 81 | 355 | 6.1 | 11.3 | 0.00 | 0.00 | 0.00 | 31 | 1006.9 |
| 20260505213228 | 81 | 10 | 7.0 | 11.3 | 0.00 | 0.00 | 0.00 | 30 | 1006.9 |
| 20260505213135 | 81 | 19 | 7.0 | 11.3 | 0.00 | 0.00 | 0.00 | 30 | 1006.9 |
| 20260505213031 | 81 | 334 | 6.1 | 11.3 | 0.00 | 0.00 | 0.00 | 31 | 1006.9 |
| 20260505212938 | 81 | 23 | 5.2 | 11.3 | 0.00 | 0.00 | 0.00 | 31 | 1007.0 |
| 20260505212818 | 81 | 77 | 5.2 | 11.3 | 0.00 | 0.00 | 0.00 | 32 | 1007.0 |
| 20260505212716 | 81 | 29 | 4.3 | 11.3 | 0.00 | 0.00 | 0.00 | 33 | 1007.0 |
| 20260505212612 | 80 | 15 | 2.6 | 11.3 | 0.00 | 0.00 | 0.00 | 32 | 1006.9 |
| 20260505212517 | 80 | 349 | 5.2 | 10.4 | 0.00 | 0.00 | 0.00 | 32 | 1007.0 |
| 20260505212422 | 80 | 34 | 6.1 | 10.4 | 0.00 | 0.00 | 0.00 | 32 | 1007.0 |
| 20260505212339 | 80 | 10 | 5.2 | 10.4 | 0.00 | 0.00 | 0.00 | 32 | 1007.0 |
| 20260505212223 | 80 | 352 | 6.1 | 10.4 | 0.00 | 0.00 | 0.00 | 32 | 1007.0 |
| 20260505212131 | 80 | 5 | 7.0 | 12.2 | 0.00 | 0.00 | 0.00 | 33 | 1007.0 |
| 20260505212029 | 80 | 360 | 7.0 | 12.2 | 0.00 | 0.00 | 0.00 | 33 | 1007.0 |
| 20260505211926 | 80 | 5 | 6.1 | 12.2 | 0.00 | 0.00 | 0.00 | 32 | 1007.0 |
| 20260505211811 | 80 | 333 | 6.1 | 12.2 | 0.00 | 0.00 | 0.00 | 31 | 1007.0 |
| 20260505211728 | 80 | 339 | 6.1 | 12.2 | 0.00 | 0.00 | 0.00 | 31 | 1007.0 |
| 20260505211656 | 80 | 340 | 6.1 | 12.2 | 0.00 | 0.00 | 0.00 | 32 | 1007.0 |
| 20260505211600 | 80 | 341 | 7.0 | 12.2 | 0.00 | 0.00 | 0.00 | 32 | 1007.0 |
| 20260505211417 | 80 | 5 | 7.8 | 12.2 | 0.00 | 0.00 | 0.00 | 32 | 1007.0 |
| 20260505211318 | 80 | 19 | 7.8 | 12.2 | 0.00 | 0.00 | 0.00 | 32 | 1007.0 |
| 20260505211224 | 80 | 346 | 7.8 | 12.2 | 0.00 | 0.00 | 0.00 | 32 | 1007.0 |
| 20260505211132 | 80 | 5 | 6.1 | 11.3 | 0.00 | 0.00 | 0.00 | 32 | 1007.0 |
| 20260505211028 | 80 | 15 | 4.3 | 11.3 | 0.00 | 0.00 | 0.00 | 33 | 1007.1 |
| 20260505210926 | 80 | 351 | 4.3 | 11.3 | 0.00 | 0.00 | 0.00 | 32 | 1007.0 |
| 20260505210833 | 80 | 65 | 4.3 | 11.3 | 0.00 | 0.00 | 0.00 | 32 | 1007.0 |
| 20260505210713 | 80 | 27 | 4.3 | 11.3 | 0.00 | 0.00 | 0.00 | 32 | 1007.0 |
| 20260505210640 | 80 | 355 | 5.2 | 11.3 | 0.00 | 0.00 | 0.00 | 32 | 1007.0 |
| 20260505210512 | 80 | 337 | 6.1 | 11.3 | 0.00 | 0.00 | 0.00 | 33 | 1007.1 |
| 20260505210439 | 80 | 43 | 7.8 | 11.3 | 0.00 | 0.00 | 0.00 | 33 | 1007.1 |
| 20260505210344 | 80 | 31 | 7.8 | 11.3 | 0.00 | 0.00 | 0.00 | 32 | 1007.1 |
| 20260505210219 | 80 | 15 | 6.1 | 11.3 | 0.00 | 0.00 | 0.00 | 32 | 1007.1 |
| 20260505210116 | 80 | 10 | 5.2 | 11.3 | 0.00 | 0.00 | 0.00 | 32 | 1007.1 |
| 20260505210022 | 80 | 10 | 3.5 | 11.3 | 0.00 | 0.00 | 0.00 | 32 | 1007.1 |
| 20260505205921 | 80 | 72 | 1.7 | 11.3 | 0.00 | 0.00 | 0.00 | 32 | 1007.1 |
| 20260505205846 | 80 | 30 | 1.7 | 11.3 | 0.00 | 0.00 | 0.00 | 32 | 1007.1 |
| 20260505205723 | 80 | 58 | 3.5 | 11.3 | 0.00 | 0.00 | 0.00 | 32 | 1007.1 |
| 20260505205647 | 80 | 10 | 5.2 | 11.3 | 0.00 | 0.00 | 0.00 | 33 | 1007.1 |
| 20260505205533 | 80 | 15 | 5.2 | 11.3 | 0.00 | 0.00 | 0.00 | 32 | 1007.1 |
| 20260505205429 | 80 | 1 | 6.1 | 11.3 | 0.00 | 0.00 | 0.00 | 32 | 1007.1 |
| 20260505205334 | 80 | 10 | 4.3 | 11.3 | 0.00 | 0.00 | 0.00 | 33 | 1007.1 |
| 20260505205241 | 80 | 10 | 4.3 | 11.3 | 0.00 | 0.00 | 0.00 | 33 | 1007.1 |
| 20260505205120 | 80 | 66 | 4.3 | 10.4 | 0.00 | 0.00 | 0.00 | 33 | 1007.1 |
| 20260505205036 | 80 | 10 | 5.2 | 10.4 | 0.00 | 0.00 | 0.00 | 33 | 1007.1 |
| 20260505204921 | 80 | 360 | 7.0 | 10.4 | 0.00 | 0.00 | 0.00 | 33 | 1007.1 |
| 20260505204847 | 80 | 67 | 6.1 | 10.4 | 0.00 | 0.00 | 0.00 | 32 | 1007.1 |
| 20260505204726 | 80 | 346 | 4.3 | 10.4 | 0.00 | 0.00 | 0.00 | 32 | 1007.1 |
| 20260505204623 | 80 | 345 | 4.3 | 10.4 | 0.00 | 0.00 | 0.00 | 32 | 1007.1 |
| 20260505204530 | 80 | 22 | 6.1 | 10.4 | 0.00 | 0.00 | 0.00 | 32 | 1007.1 |
| 20260505204426 | 80 | 15 | 7.0 | 10.4 | 0.00 | 0.00 | 0.00 | 33 | 1007.2 |
| 20260505204334 | 80 | 15 | 7.0 | 10.4 | 0.00 | 0.00 | 0.00 | 32 | 1007.2 |
| 20260505204230 | 80 | 352 | 6.1 | 9.6 | 0.00 | 0.00 | 0.00 | 32 | 1007.2 |
| 20260505204138 | 80 | 353 | 4.3 | 8.7 | 0.00 | 0.00 | 0.00 | 32 | 1007.2 |
| 20260505204012 | 80 | 72 | 4.3 | 11.3 | 0.00 | 0.00 | 0.00 | 33 | 1007.2 |
| 20260505203938 | 80 | 53 | 4.3 | 11.3 | 0.00 | 0.00 | 0.00 | 32 | 1007.2 |
| 20260505203816 | 79 | 15 | 2.6 | 11.3 | 0.00 | 0.00 | 0.00 | 33 | 1007.2 |
| 20260505203745 | 79 | 32 | 3.5 | 11.3 | 0.00 | 0.00 | 0.00 | 33 | 1007.2 |
| 20260505203620 | 79 | 356 | 5.2 | 11.3 | 0.00 | 0.00 | 0.00 | 32 | 1007.2 |
| 20260505203517 | 79 | 15 | 6.1 | 11.3 | 0.00 | 0.00 | 0.00 | 33 | 1007.2 |
| 20260505203422 | 79 | 23 | 6.1 | 11.3 | 0.00 | 0.00 | 0.00 | 32 | 1007.2 |
| 20260505203320 | 79 | 20 | 6.1 | 11.3 | 0.00 | 0.00 | 0.00 | 32 | 1007.3 |
| 20260505203228 | 79 | 23 | 6.1 | 11.3 | 0.00 | 0.00 | 0.00 | 32 | 1007.3 |
| 20260505203124 | 79 | 5 | 3.5 | 10.4 | 0.00 | 0.00 | 0.00 | 33 | 1007.3 |
| 20260505203028 | 79 | 32 | 3.5 | 10.4 | 0.00 | 0.00 | 0.00 | 33 | 1007.3 |
| 20260505202923 | 79 | 40 | 4.3 | 10.4 | 0.00 | 0.00 | 0.00 | 33 | 1007.2 |
| 20260505202828 | 79 | 76 | 5.2 | 10.4 | 0.00 | 0.00 | 0.00 | 33 | 1007.2 |
| 20260505202725 | 79 | 15 | 5.2 | 14.8 | 0.00 | 0.00 | 0.00 | 33 | 1007.4 |
| 20260505202621 | 79 | 10 | 5.2 | 14.8 | 0.00 | 0.00 | 0.00 | 33 | 1007.4 |
| 20260505202547 | 79 | 353 | 3.5 | 14.8 | 0.00 | 0.00 | 0.00 | 33 | 1007.4 |
| 20260505202433 | 79 | 316 | 3.5 | 14.8 | 0.00 | 0.00 | 0.00 | 34 | 1007.3 |
| 20260505202329 | 79 | 36 | 6.1 | 14.8 | 0.00 | 0.00 | 0.00 | 34 | 1007.3 |
| 20260505202218 | 79 | 23 | 6.1 | 14.8 | 0.00 | 0.00 | 0.00 | 33 | 1007.4 |
| 20260505202114 | 79 | 26 | 6.1 | 14.8 | 0.00 | 0.00 | 0.00 | 32 | 1007.4 |
| 20260505202041 | 79 | 352 | 7.0 | 14.8 | 0.00 | 0.00 | 0.00 | 34 | 1007.4 |
| 20260505201916 | 79 | 349 | 4.3 | 14.8 | 0.00 | 0.00 | 0.00 | 33 | 1007.4 |
| 20260505201821 | 79 | 23 | 3.5 | 10.4 | 0.00 | 0.00 | 0.00 | 33 | 1007.4 |
| 20260505201727 | 79 | 44 | 5.2 | 11.3 | 0.00 | 0.00 | 0.00 | 33 | 1007.4 |
| 20260505201620 | 79 | 40 | 5.2 | 11.3 | 0.00 | 0.00 | 0.00 | 34 | 1007.4 |
| 20260505201516 | 79 | 25 | 5.2 | 11.3 | 0.00 | 0.00 | 0.00 | 33 | 1007.4 |
| 20260505201426 | 79 | 10 | 6.1 | 11.3 | 0.00 | 0.00 | 0.00 | 33 | 1007.4 |
| 20260505201323 | 79 | 32 | 5.2 | 11.3 | 0.00 | 0.00 | 0.00 | 34 | 1007.4 |
| 20260505201230 | 79 | 20 | 4.3 | 11.3 | 0.00 | 0.00 | 0.00 | 34 | 1007.4 |
| 20260505201159 | 79 | 341 | 3.5 | 11.3 | 0.00 | 0.00 | 0.00 | 35 | 1007.4 |
| 20260505201012 | 78 | 61 | 5.2 | 12.2 | 0.00 | 0.00 | 0.00 | 35 | 1007.5 |
| 20260505200930 | 78 | 58 | 4.3 | 12.2 | 0.00 | 0.00 | 0.00 | 35 | 1007.5 |
| 20260505200852 | 78 | 15 | 4.3 | 12.2 | 0.00 | 0.00 | 0.00 | 34 | 1007.5 |
| 20260505200714 | 78 | 40 | 6.1 | 12.2 | 0.00 | 0.00 | 0.00 | 34 | 1007.5 |
| 20260505200619 | 78 | 28 | 6.1 | 12.2 | 0.00 | 0.00 | 0.00 | 34 | 1007.5 |
| 20260505200537 | 78 | 40 | 5.2 | 12.2 | 0.00 | 0.00 | 0.00 | 34 | 1007.5 |
| 20260505200420 | 78 | 331 | 5.2 | 12.2 | 0.00 | 0.00 | 0.00 | 34 | 1007.5 |
| 20260505200318 | 78 | 342 | 6.1 | 12.2 | 0.00 | 0.00 | 0.00 | 35 | 1007.5 |
| 20260505200225 | 78 | 350 | 6.1 | 12.2 | 0.00 | 0.00 | 0.00 | 35 | 1007.5 |
| 20260505200120 | 78 | 359 | 4.3 | 11.3 | 0.00 | 0.00 | 0.00 | 35 | 1007.5 |
| 20260505200029 | 78 | 19 | 3.5 | 11.3 | 0.00 | 0.00 | 0.00 | 35 | 1007.5 |
| 20260505195955 | 78 | 31 | 4.3 | 11.3 | 0.00 | 0.00 | 0.00 | 36 | 1007.5 |
| 20260505195811 | 78 | 15 | 4.3 | 11.3 | 0.00 | 0.00 | 0.00 | 34 | 1007.5 |
| 20260505195728 | 78 | 5 | 4.3 | 11.3 | 0.00 | 0.00 | 0.00 | 33 | 1007.5 |
| 20260505195633 | 78 | 347 | 5.2 | 11.3 | 0.00 | 0.00 | 0.00 | 34 | 1007.5 |
| 20260505195536 | 78 | 1 | 7.0 | 11.3 | 0.00 | 0.00 | 0.00 | 34 | 1007.5 |
| 20260505195432 | 78 | 5 | 7.8 | 11.3 | 0.00 | 0.00 | 0.00 | 35 | 1007.5 |
| 20260505195359 | 78 | 351 | 6.1 | 10.4 | 0.00 | 0.00 | 0.00 | 36 | 1007.5 |
| 20260505195220 | 78 | 36 | 3.5 | 10.4 | 0.00 | 0.00 | 0.00 | 36 | 1007.5 |
| 20260505195143 | 78 | 70 | 3.5 | 9.6 | 0.00 | 0.00 | 0.00 | 35 | 1007.5 |
| 20260505195019 | 78 | 91 | 2.6 | 9.6 | 0.00 | 0.00 | 0.00 | 36 | 1007.5 |
| 20260505194923 | 78 | 25 | 2.6 | 9.6 | 0.00 | 0.00 | 0.00 | 35 | 1007.5 |
| 20260505194820 | 78 | 93 | 3.5 | 9.6 | 0.00 | 0.00 | 0.00 | 36 | 1007.5 |
| 20260505194729 | 78 | 54 | 4.3 | 9.6 | 0.00 | 0.00 | 0.00 | 36 | 1007.5 |
| 20260505194623 | 77 | 52 | 3.5 | 9.6 | 0.00 | 0.00 | 0.00 | 35 | 1007.6 |
| 20260505194524 | 77 | 360 | 3.5 | 9.6 | 0.00 | 0.00 | 0.00 | 35 | 1007.6 |
| 20260505194430 | 77 | 356 | 4.3 | 9.6 | 0.00 | 0.00 | 0.00 | 35 | 1007.6 |
| 20260505194328 | 77 | 354 | 4.3 | 10.4 | 0.00 | 0.00 | 0.00 | 36 | 1007.6 |
| 20260505194234 | 77 | 10 | 3.5 | 10.4 | 0.00 | 0.00 | 0.00 | 36 | 1007.6 |
| 20260505194131 | 77 | 343 | 2.6 | 10.4 | 0.00 | 0.00 | 0.00 | 37 | 1007.6 |
| 20260505194035 | 77 | 19 | 3.5 | 10.4 | 0.00 | 0.00 | 0.00 | 37 | 1007.6 |
| 20260505193913 | 77 | 57 | 5.2 | 10.4 | 0.00 | 0.00 | 0.00 | 37 | 1007.6 |
| 20260505193843 | 77 | 28 | 5.2 | 10.4 | 0.00 | 0.00 | 0.00 | 36 | 1007.6 |
| 20260505193720 | 77 | 25 | 6.1 | 10.4 | 0.00 | 0.00 | 0.00 | 37 | 1007.6 |
| 20260505193628 | 77 | 55 | 6.1 | 10.4 | 0.00 | 0.00 | 0.00 | 37 | 1007.6 |
| 20260505193544 | 77 | 33 | 5.2 | 10.4 | 0.00 | 0.00 | 0.00 | 38 | 1007.6 |
| 20260505193430 | 76 | 52 | 4.3 | 10.4 | 0.00 | 0.00 | 0.00 | 37 | 1007.6 |
| 20260505193328 | 76 | 21 | 3.5 | 10.4 | 0.00 | 0.00 | 0.00 | 37 | 1007.6 |
| 20260505193236 | 76 | 41 | 4.3 | 10.4 | 0.00 | 0.00 | 0.00 | 38 | 1007.7 |
| 20260505193113 | 76 | 42 | 6.1 | 10.4 | 0.00 | 0.00 | 0.00 | 37 | 1007.7 |
| 20260505193030 | 76 | 350 | 5.2 | 10.4 | 0.00 | 0.00 | 0.00 | 39 | 1007.7 |
| 20260505192936 | 76 | 23 | 3.5 | 9.6 | 0.00 | 0.00 | 0.00 | 38 | 1007.7 |
| 20260505192832 | 76 | 45 | 4.3 | 9.6 | 0.00 | 0.00 | 0.00 | 37 | 1007.7 |
| 20260505192719 | 76 | 23 | 5.2 | 9.6 | 0.00 | 0.00 | 0.00 | 37 | 1007.7 |
| 20260505192614 | 76 | 15 | 6.1 | 9.6 | 0.00 | 0.00 | 0.00 | 38 | 1007.8 |
| 20260505192512 | 76 | 20 | 5.2 | 9.6 | 0.00 | 0.00 | 0.00 | 38 | 1007.7 |
| 20260505192422 | 75 | 10 | 3.5 | 9.6 | 0.00 | 0.00 | 0.00 | 38 | 1007.7 |
| 20260505192319 | 75 | 10 | 4.3 | 9.6 | 0.00 | 0.00 | 0.00 | 38 | 1007.7 |
| 20260505192227 | 75 | 27 | 3.5 | 7.8 | 0.00 | 0.00 | 0.00 | 39 | 1007.7 |
| 20260505192123 | 75 | 110 | 1.7 | 7.8 | 0.00 | 0.00 | 0.00 | 38 | 1007.7 |
| 20260505192020 | 75 | 327 | 1.7 | 7.8 | 0.00 | 0.00 | 0.00 | 38 | 1007.7 |
| 20260505191925 | 75 | 329 | 2.6 | 7.8 | 0.00 | 0.00 | 0.00 | 39 | 1007.7 |
| 20260505191829 | 75 | 24 | 4.3 | 7.8 | 0.00 | 0.00 | 0.00 | 38 | 1007.7 |
| 20260505191742 | 75 | 21 | 4.3 | 8.7 | 0.00 | 0.00 | 0.00 | 38 | 1007.8 |
| 20260505191613 | 75 | 341 | 3.5 | 8.7 | 0.00 | 0.00 | 0.00 | 39 | 1007.8 |
| 20260505191540 | 75 | 353 | 3.5 | 8.7 | 0.00 | 0.00 | 0.00 | 39 | 1007.8 |
| 20260505191417 | 75 | 10 | 3.5 | 8.7 | 0.00 | 0.00 | 0.00 | 38 | 1007.8 |
| 20260505191314 | 75 | 319 | 5.2 | 8.7 | 0.00 | 0.00 | 0.00 | 38 | 1007.8 |
| 20260505191220 | 76 | 344 | 5.2 | 8.7 | 0.00 | 0.00 | 0.00 | 38 | 1007.8 |
| 20260505191143 | 76 | 332 | 5.2 | 8.7 | 0.00 | 0.00 | 0.00 | 38 | 1007.8 |
| 20260505191019 | 76 | 335 | 4.3 | 8.7 | 0.00 | 0.00 | 0.00 | 39 | 1007.8 |
| 20260505190920 | 76 | 359 | 3.5 | 8.7 | 0.00 | 0.00 | 0.00 | 40 | 1007.8 |
| 20260505190826 | 75 | 29 | 4.3 | 8.7 | 0.00 | 0.00 | 0.00 | 39 | 1007.8 |
| 20260505190753 | 75 | 10 | 3.5 | 8.7 | 0.00 | 0.00 | 0.00 | 39 | 1007.8 |
| 20260505190628 | 75 | 19 | 2.6 | 8.7 | 0.00 | 0.00 | 0.00 | 41 | 1007.8 |
| 20260505190532 | 75 | 29 | 2.6 | 8.7 | 0.00 | 0.00 | 0.00 | 39 | 1007.8 |
| 20260505190428 | 75 | 77 | 5.2 | 8.7 | 0.00 | 0.00 | 0.00 | 39 | 1007.8 |
| 20260505190354 | 75 | 57 | 5.2 | 8.7 | 0.00 | 0.00 | 0.00 | 40 | 1007.8 |
| 20260505190236 | 75 | 50 | 3.5 | 8.7 | 0.00 | 0.00 | 0.00 | 40 | 1007.8 |
| 20260505190119 | 75 | 29 | 3.5 | 8.7 | 0.00 | 0.00 | 0.00 | 40 | 1007.9 |
| 20260505190034 | 75 | 28 | 3.5 | 8.7 | 0.00 | 0.00 | 0.00 | 39 | 1007.8 |
| 20260505185919 | 75 | 65 | 4.3 | 8.7 | 0.00 | 0.00 | 0.00 | 40 | 1007.8 |
| 20260505185817 | 75 | 352 | 2.6 | 9.6 | 0.00 | 0.00 | 0.00 | 40 | 1007.8 |
| 20260505185724 | 74 | 27 | 2.6 | 9.6 | 0.00 | 0.00 | 0.00 | 39 | 1007.9 |
| 20260505185617 | 75 | 306 | 3.5 | 9.6 | 0.00 | 0.00 | 0.00 | 39 | 1007.8 |
| 20260505185543 | 75 | 306 | 4.3 | 9.6 | 0.00 | 0.00 | 0.00 | 39 | 1007.8 |
| 20260505185451 | 74 | 323 | 2.6 | 9.6 | 0.00 | 0.00 | 0.00 | 40 | 1007.8 |
| 20260505185327 | 74 | 5 | 2.6 | 9.6 | 0.00 | 0.00 | 0.00 | 40 | 1007.9 |
| 20260505185223 | 74 | 321 | 4.3 | 9.6 | 0.00 | 0.00 | 0.00 | 41 | 1007.9 |
| 20260505185131 | 74 | 350 | 5.2 | 9.6 | 0.00 | 0.00 | 0.00 | 40 | 1007.9 |
| 20260505185024 | 74 | 21 | 4.3 | 9.6 | 0.00 | 0.00 | 0.00 | 41 | 1007.9 |
| 20260505184930 | 74 | 341 | 4.3 | 9.6 | 0.00 | 0.00 | 0.00 | 39 | 1007.9 |
| 20260505184826 | 74 | 358 | 4.3 | 8.7 | 0.00 | 0.00 | 0.00 | 40 | 1007.9 |
| 20260505184726 | 74 | 27 | 4.3 | 8.7 | 0.00 | 0.00 | 0.00 | 40 | 1008.0 |
| 20260505184635 | 74 | 10 | 3.5 | 8.7 | 0.00 | 0.00 | 0.00 | 41 | 1008.0 |
| 20260505184558 | 74 | 29 | 3.5 | 8.7 | 0.00 | 0.00 | 0.00 | 40 | 1007.9 |
| 20260505184415 | 74 | 39 | 4.3 | 8.7 | 0.00 | 0.00 | 0.00 | 41 | 1008.0 |
| 20260505184312 | 74 | 36 | 4.3 | 8.7 | 0.00 | 0.00 | 0.00 | 41 | 1008.0 |
| 20260505184240 | 74 | 48 | 4.3 | 8.7 | 0.00 | 0.00 | 0.00 | 41 | 1008.0 |
| 20260505184119 | 74 | 348 | 3.5 | 8.7 | 0.00 | 0.00 | 0.00 | 41 | 1007.9 |
| 20260505184046 | 74 | 21 | 4.3 | 8.7 | 0.00 | 0.00 | 0.00 | 42 | 1007.9 |
| 20260505183922 | 74 | 37 | 3.5 | 8.7 | 0.00 | 0.00 | 0.00 | 42 | 1007.9 |
| 20260505183828 | 74 | 347 | 2.6 | 8.7 | 0.00 | 0.00 | 0.00 | 41 | 1007.9 |
| 20260505183731 | 74 | 323 | 3.5 | 8.7 | 0.00 | 0.00 | 0.00 | 41 | 1007.9 |
| 20260505183651 | 74 | 333 | 2.6 | 8.7 | 0.00 | 0.00 | 0.00 | 40 | 1007.9 |
| 20260505183532 | 74 | 344 | 3.5 | 8.7 | 0.00 | 0.00 | 0.00 | 41 | 1007.9 |
| 20260505183458 | 74 | 344 | 3.5 | 8.7 | 0.00 | 0.00 | 0.00 | 41 | 1007.9 |
| 20260505183333 | 74 | 354 | 4.3 | 8.7 | 0.00 | 0.00 | 0.00 | 41 | 1007.9 |
| 20260505183258 | 74 | 343 | 5.2 | 8.7 | 0.00 | 0.00 | 0.00 | 41 | 1007.9 |
| 20260505183118 | 74 | 341 | 4.3 | 7.8 | 0.00 | 0.00 | 0.00 | 41 | 1007.9 |
| 20260505183016 | 74 | 15 | 2.6 | 6.1 | 0.00 | 0.00 | 0.00 | 40 | 1007.8 |
| 20260505182922 | 74 | 44 | 3.5 | 7.0 | 0.00 | 0.00 | 0.00 | 40 | 1007.9 |
| 20260505182837 | 74 | 354 | 2.6 | 7.0 | 0.00 | 0.00 | 0.00 | 41 | 1007.9 |
| 20260505182724 | 74 | 19 | 2.6 | 7.0 | 0.00 | 0.00 | 0.00 | 40 | 1007.9 |
| 20260505182619 | 74 | 113 | 3.5 | 7.8 | 0.00 | 0.00 | 0.00 | 40 | 1007.9 |
| 20260505182528 | 74 | 28 | 3.5 | 7.8 | 0.00 | 0.00 | 0.00 | 41 | 1007.9 |
| 20260505182445 | 74 | 88 | 3.5 | 7.8 | 0.00 | 0.00 | 0.00 | 41 | 1007.8 |
| 20260505182331 | 74 | 50 | 1.7 | 7.8 | 0.00 | 0.00 | 0.00 | 40 | 1007.8 |
| 20260505182228 | 74 | 25 | 2.6 | 7.8 | 0.00 | 0.00 | 0.00 | 41 | 1007.9 |
| 20260505182137 | 74 | 20 | 3.5 | 7.8 | 0.00 | 0.00 | 0.00 | 40 | 1007.8 |
| 20260505182012 | 74 | 353 | 3.5 | 7.8 | 0.00 | 0.00 | 0.00 | 41 | 1007.8 |
| 20260505181938 | 74 | 39 | 4.3 | 7.8 | 0.00 | 0.00 | 0.00 | 40 | 1007.8 |
| 20260505181817 | 74 | 69 | 4.3 | 7.8 | 0.00 | 0.00 | 0.00 | 41 | 1007.9 |
| 20260505181743 | 74 | 28 | 5.2 | 7.8 | 0.00 | 0.00 | 0.00 | 41 | 1007.8 |
| 20260505181616 | 74 | 10 | 4.3 | 7.8 | 0.00 | 0.00 | 0.00 | 41 | 1007.9 |
| 20260505181544 | 74 | 5 | 2.6 | 7.8 | 0.00 | 0.00 | 0.00 | 41 | 1007.8 |
| 20260505181420 | 74 | 1 | 0.9 | 7.8 | 0.00 | 0.00 | 0.00 | 41 | 1007.8 |
| 20260505181347 | 74 | 1 | 0.9 | 7.8 | 0.00 | 0.00 | 0.00 | 41 | 1007.8 |
| 20260505181253 | 74 | 1 | 1.7 | 7.8 | 0.00 | 0.00 | 0.00 | 41 | 1007.8 |
| 20260505181130 | 73 | 1 | 1.7 | 7.8 | 0.00 | 0.00 | 0.00 | 42 | 1007.8 |
| 20260505181013 | 73 | 354 | 1.7 | 7.8 | 0.00 | 0.00 | 0.00 | 42 | 1007.8 |
| 20260505180914 | 73 | 354 | 2.6 | 7.8 | 0.00 | 0.00 | 0.00 | 42 | 1007.8 |
| 20260505180820 | 73 | 40 | 3.5 | 7.8 | 0.00 | 0.00 | 0.00 | 42 | 1007.9 |
| 20260505180714 | 73 | 57 | 2.6 | 7.8 | 0.00 | 0.00 | 0.00 | 42 | 1007.8 |
| 20260505180642 | 73 | 46 | 1.7 | 7.8 | 0.00 | 0.00 | 0.00 | 42 | 1007.8 |
| 20260505180518 | 73 | 47 | 3.5 | 7.8 | 0.00 | 0.00 | 0.00 | 42 | 1007.8 |
| 20260505180416 | 73 | 50 | 2.6 | 7.8 | 0.00 | 0.00 | 0.00 | 43 | 1007.8 |
| 20260505180325 | 73 | 25 | 1.7 | 7.0 | 0.00 | 0.00 | 0.00 | 43 | 1007.8 |
| 20260505180241 | 73 | 21 | 0.9 | 7.0 | 0.00 | 0.00 | 0.00 | 42 | 1007.8 |
| 20260505180129 | 73 | 21 | 1.7 | 7.0 | 0.00 | 0.00 | 0.00 | 43 | 1007.8 |
| 20260505180024 | 73 | 21 | 3.5 | 7.0 | 0.00 | 0.00 | 0.00 | 43 | 1007.8 |
| 20260505175930 | 73 | 21 | 2.6 | 7.0 | 0.00 | 0.00 | 0.00 | 43 | 1007.8 |
| 20260505175824 | 73 | 26 | 2.6 | 6.1 | 0.00 | 0.00 | 0.00 | 43 | 1007.8 |
| 20260505175730 | 72 | 24 | 3.5 | 5.2 | 0.00 | 0.00 | 0.00 | 44 | 1007.8 |
| 20260505175629 | 72 | 29 | 2.6 | 6.1 | 0.00 | 0.00 | 0.00 | 43 | 1007.8 |
| 20260505175536 | 72 | 77 | 1.7 | 5.2 | 0.00 | 0.00 | 0.00 | 43 | 1007.8 |
| 20260505175431 | 72 | 77 | 2.6 | 5.2 | 0.00 | 0.00 | 0.00 | 44 | 1007.8 |
| 20260505175338 | 72 | 5 | 2.6 | 7.0 | 0.00 | 0.00 | 0.00 | 44 | 1007.8 |
| 20260505175217 | 72 | 353 | 0.9 | 7.0 | 0.00 | 0.00 | 0.00 | 44 | 1007.8 |
| 20260505175140 | 71 | 352 | 0.9 | 7.0 | 0.00 | 0.00 | 0.00 | 44 | 1007.8 |
| 20260505175036 | 71 | 352 | 0.9 | 7.0 | 0.00 | 0.00 | 0.00 | 45 | 1007.8 |
| 20260505174922 | 71 | 352 | 1.7 | 7.0 | 0.00 | 0.00 | 0.00 | 45 | 1007.8 |
| 20260505174824 | 71 | 352 | 2.6 | 7.0 | 0.00 | 0.00 | 0.00 | 44 | 1007.8 |
| 20260505174730 | 71 | 352 | 3.5 | 7.0 | 0.00 | 0.00 | 0.00 | 44 | 1007.8 |
| 20260505174625 | 71 | 313 | 4.3 | 7.0 | 0.00 | 0.00 | 0.00 | 44 | 1007.8 |
| 20260505174522 | 71 | 314 | 3.5 | 5.2 | 0.00 | 0.00 | 0.00 | 44 | 1007.8 |
| 20260505174428 | 71 | 336 | 2.6 | 5.2 | 0.00 | 0.00 | 0.00 | 45 | 1007.8 |
| 20260505174354 | 71 | 337 | 1.7 | 5.2 | 0.00 | 0.00 | 0.00 | 45 | 1007.8 |
| 20260505174213 | 71 | 327 | 0.0 | 5.2 | 0.00 | 0.00 | 0.00 | 45 | 1007.8 |
| 20260505174113 | 71 | 327 | 0.0 | 5.2 | 0.00 | 0.00 | 0.00 | 45 | 1007.8 |
| 20260505174019 | 71 | 327 | 0.0 | 5.2 | 0.00 | 0.00 | 0.00 | 45 | 1007.8 |
| 20260505173916 | 70 | 327 | 0.9 | 5.2 | 0.00 | 0.00 | 0.00 | 45 | 1007.8 |
| 20260505173843 | 70 | 327 | 2.6 | 5.2 | 0.00 | 0.00 | 0.00 | 45 | 1007.8 |
| 20260505173721 | 70 | 327 | 2.6 | 6.1 | 0.00 | 0.00 | 0.00 | 45 | 1007.8 |
| 20260505173625 | 70 | 298 | 1.7 | 5.2 | 0.00 | 0.00 | 0.00 | 45 | 1007.7 |
| 20260505173521 | 70 | 265 | 0.0 | 3.5 | 0.00 | 0.00 | 0.00 | 46 | 1007.7 |
| 20260505173423 | 70 | 265 | 0.0 | 3.5 | 0.00 | 0.00 | 0.00 | 45 | 1007.8 |
| 20260505173330 | 70 | 265 | 0.9 | 3.5 | 0.00 | 0.00 | 0.00 | 46 | 1007.8 |
| 20260505173228 | 70 | 265 | 0.9 | 3.5 | 0.00 | 0.00 | 0.00 | 46 | 1007.8 |
| 20260505173134 | 70 | 265 | 0.9 | 3.5 | 0.00 | 0.00 | 0.00 | 47 | 1007.8 |
| 20260505173031 | 70 | 265 | 1.7 | 3.5 | 0.00 | 0.00 | 0.00 | 48 | 1007.8 |
| 20260505172936 | 69 | 265 | 2.6 | 3.5 | 0.00 | 0.00 | 0.00 | 47 | 1007.8 |
| 20260505172818 | 69 | 268 | 1.7 | 3.5 | 0.00 | 0.00 | 0.00 | 47 | 1007.8 |
| 20260505172723 | 69 | 268 | 2.6 | 3.5 | 0.00 | 0.00 | 0.00 | 47 | 1007.8 |
| 20260505172616 | 69 | 268 | 0.9 | 3.5 | 0.00 | 0.00 | 0.00 | 47 | 1007.8 |
| 20260505172522 | 69 | 267 | 0.9 | 3.5 | 0.00 | 0.00 | 0.00 | 47 | 1007.8 |
| 20260505172417 | 69 | 267 | 1.7 | 3.5 | 0.00 | 0.00 | 0.00 | 47 | 1007.8 |
| 20260505172323 | 69 | 267 | 2.6 | 3.5 | 0.00 | 0.00 | 0.00 | 47 | 1007.8 |
| 20260505172241 | 69 | 267 | 1.7 | 3.5 | 0.00 | 0.00 | 0.00 | 48 | 1007.8 |
| 20260505172125 | 69 | 267 | 0.9 | 3.5 | 0.00 | 0.00 | 0.00 | 48 | 1007.9 |
| 20260505172026 | 68 | 266 | 0.9 | 3.5 | 0.00 | 0.00 | 0.00 | 48 | 1007.8 |
| 20260505171931 | 68 | 266 | 0.9 | 3.5 | 0.00 | 0.00 | 0.00 | 48 | 1007.8 |
| 20260505171827 | 68 | 266 | 0.0 | 3.5 | 0.00 | 0.00 | 0.00 | 48 | 1007.9 |
| 20260505171734 | 68 | 266 | 0.9 | 3.5 | 0.00 | 0.00 | 0.00 | 48 | 1007.9 |
| 20260505171626 | 68 | 266 | 1.7 | 3.5 | 0.00 | 0.00 | 0.00 | 48 | 1007.9 |
| 20260505171553 | 68 | 266 | 1.7 | 3.5 | 0.00 | 0.00 | 0.00 | 48 | 1007.9 |
| 20260505171427 | 68 | 270 | 1.7 | 3.5 | 0.00 | 0.00 | 0.00 | 50 | 1007.9 |
| 20260505171316 | 68 | 270 | 0.9 | 3.5 | 0.00 | 0.00 | 0.00 | 49 | 1007.9 |
| 20260505171214 | 68 | 270 | 0.9 | 3.5 | 0.00 | 0.00 | 0.00 | 49 | 1007.9 |
| 20260505171117 | 68 | 270 | 1.7 | 3.5 | 0.00 | 0.00 | 0.00 | 48 | 1007.9 |
| 20260505171013 | 68 | 270 | 1.7 | 3.5 | 0.00 | 0.00 | 0.00 | 48 | 1007.9 |
| 20260505170919 | 68 | 270 | 1.7 | 3.5 | 0.00 | 0.00 | 0.00 | 48 | 1007.9 |
| 20260505170816 | 68 | 269 | 1.7 | 3.5 | 0.00 | 0.00 | 0.00 | 48 | 1007.9 |
| 20260505170714 | 67 | 269 | 1.7 | 2.6 | 0.00 | 0.00 | 0.00 | 49 | 1007.9 |
| 20260505170622 | 67 | 269 | 1.7 | 2.6 | 0.00 | 0.00 | 0.00 | 49 | 1007.9 |
| 20260505170519 | 67 | 269 | 1.7 | 6.1 | 0.00 | 0.00 | 0.00 | 49 | 1007.9 |
| 20260505170426 | 67 | 269 | 1.7 | 6.1 | 0.00 | 0.00 | 0.00 | 49 | 1007.9 |
| 20260505170322 | 67 | 269 | 0.9 | 6.1 | 0.00 | 0.00 | 0.00 | 49 | 1007.9 |
| 20260505170221 | 67 | 269 | 0.9 | 6.1 | 0.00 | 0.00 | 0.00 | 49 | 1007.8 |
| 20260505170126 | 67 | 269 | 0.9 | 6.1 | 0.00 | 0.00 | 0.00 | 48 | 1007.9 |
| 20260505170023 | 67 | 269 | 0.9 | 6.1 | 0.00 | 0.00 | 0.00 | 48 | 1007.9 |
| 20260505165931 | 67 | 269 | 0.9 | 6.1 | 0.00 | 0.00 | 0.00 | 49 | 1007.9 |
| 20260505165834 | 67 | 269 | 1.7 | 6.1 | 0.00 | 0.00 | 0.00 | 49 | 1007.9 |
| 20260505165740 | 67 | 269 | 3.5 | 6.1 | 0.00 | 0.00 | 0.00 | 49 | 1007.9 |
| 20260505165616 | 67 | 242 | 1.7 | 5.2 | 0.00 | 0.00 | 0.00 | 49 | 1007.8 |
| 20260505165514 | 67 | 240 | 0.9 | 5.2 | 0.00 | 0.00 | 0.00 | 49 | 1007.9 |
| 20260505165412 | 67 | 240 | 1.7 | 5.2 | 0.00 | 0.00 | 0.00 | 50 | 1007.8 |
| 20260505165319 | 67 | 240 | 1.7 | 5.2 | 0.00 | 0.00 | 0.00 | 50 | 1007.8 |
| 20260505165246 | 67 | 240 | 0.9 | 5.2 | 0.00 | 0.00 | 0.00 | 51 | 1007.9 |
| 20260505165128 | 67 | 239 | 1.7 | 5.2 | 0.00 | 0.00 | 0.00 | 51 | 1007.9 |
| 20260505165031 | 67 | 239 | 2.6 | 5.2 | 0.00 | 0.00 | 0.00 | 51 | 1007.9 |
| 20260505164927 | 66 | 239 | 2.6 | 5.2 | 0.00 | 0.00 | 0.00 | 51 | 1007.9 |
| 20260505164833 | 66 | 239 | 4.3 | 5.2 | 0.00 | 0.00 | 0.00 | 51 | 1007.9 |
| 20260505164730 | 66 | 241 | 3.5 | 6.1 | 0.00 | 0.00 | 0.00 | 50 | 1007.9 |
| 20260505164638 | 66 | 246 | 2.6 | 6.1 | 0.00 | 0.00 | 0.00 | 50 | 1007.9 |
| 20260505164518 | 66 | 268 | 2.6 | 5.2 | 0.00 | 0.00 | 0.00 | 50 | 1007.9 |
| 20260505164436 | 66 | 268 | 2.6 | 5.2 | 0.00 | 0.00 | 0.00 | 50 | 1007.9 |
| 20260505164321 | 66 | 267 | 1.7 | 5.2 | 0.00 | 0.00 | 0.00 | 51 | 1007.9 |
| 20260505164218 | 66 | 267 | 0.0 | 5.2 | 0.00 | 0.00 | 0.00 | 51 | 1007.9 |
| 20260505164122 | 66 | 231 | 0.0 | 5.2 | 0.00 | 0.00 | 0.00 | 52 | 1007.9 |
| 20260505164018 | 66 | 231 | 0.0 | 5.2 | 0.00 | 0.00 | 0.00 | 52 | 1007.9 |
| 20260505163916 | 66 | 231 | 0.0 | 5.2 | 0.00 | 0.00 | 0.00 | 52 | 1007.9 |
| 20260505163827 | 65 | 231 | 0.9 | 5.2 | 0.00 | 0.00 | 0.00 | 52 | 1007.9 |
| 20260505163731 | 65 | 231 | 1.7 | 5.2 | 0.00 | 0.00 | 0.00 | 52 | 1007.9 |
| 20260505163630 | 65 | 231 | 2.6 | 5.2 | 0.00 | 0.00 | 0.00 | 52 | 1007.9 |
| 20260505163525 | 65 | 231 | 3.5 | 5.2 | 0.00 | 0.00 | 0.00 | 53 | 1007.9 |
| 20260505163430 | 65 | 231 | 4.3 | 5.2 | 0.00 | 0.00 | 0.00 | 53 | 1007.9 |
| 20260505163326 | 65 | 231 | 3.5 | 5.2 | 0.00 | 0.00 | 0.00 | 54 | 1007.9 |
| 20260505163234 | 65 | 231 | 3.5 | 6.1 | 0.00 | 0.00 | 0.00 | 55 | 1007.9 |
| 20260505163113 | 65 | 232 | 3.5 | 6.1 | 0.00 | 0.00 | 0.00 | 56 | 1007.9 |
| 20260505163039 | 65 | 247 | 3.5 | 6.1 | 0.00 | 0.00 | 0.00 | 56 | 1007.9 |
| 20260505162914 | 64 | 247 | 3.5 | 6.1 | 0.00 | 0.00 | 0.00 | 57 | 1007.9 |
| 20260505162812 | 64 | 252 | 3.5 | 5.2 | 0.00 | 0.00 | 0.00 | 57 | 1007.9 |
| 20260505162739 | 64 | 190 | 3.5 | 5.2 | 0.00 | 0.00 | 0.00 | 57 | 1007.9 |
| 20260505162614 | 64 | 217 | 1.7 | 4.3 | 0.00 | 0.00 | 0.00 | 57 | 1007.9 |
| 20260505162516 | 64 | 219 | 1.7 | 4.3 | 0.00 | 0.00 | 0.00 | 58 | 1007.9 |
| 20260505162422 | 63 | 219 | 2.6 | 4.3 | 0.00 | 0.00 | 0.00 | 58 | 1007.9 |
| 20260505162340 | 63 | 219 | 2.6 | 4.3 | 0.00 | 0.00 | 0.00 | 58 | 1007.9 |
| 20260505162226 | 63 | 219 | 1.7 | 3.5 | 0.00 | 0.00 | 0.00 | 58 | 1007.9 |
| 20260505162121 | 63 | 219 | 0.0 | 4.3 | 0.00 | 0.00 | 0.00 | 58 | 1007.9 |
| 20260505162027 | 63 | 218 | 0.9 | 4.3 | 0.00 | 0.00 | 0.00 | 58 | 1007.9 |
| 20260505161925 | 63 | 218 | 1.7 | 4.3 | 0.00 | 0.00 | 0.00 | 58 | 1007.9 |
| 20260505161836 | 63 | 218 | 1.7 | 4.3 | 0.00 | 0.00 | 0.00 | 58 | 1007.9 |
| 20260505161713 | 62 | 218 | 1.7 | 4.3 | 0.00 | 0.00 | 0.00 | 59 | 1007.9 |
| 20260505161633 | 62 | 218 | 1.7 | 4.3 | 0.00 | 0.00 | 0.00 | 59 | 1007.9 |
| 20260505161536 | 62 | 218 | 2.6 | 4.3 | 0.00 | 0.00 | 0.00 | 59 | 1007.9 |
| 20260505161430 | 62 | 218 | 2.6 | 4.3 | 0.00 | 0.00 | 0.00 | 60 | 1008.0 |
| 20260505161336 | 62 | 218 | 3.5 | 4.3 | 0.00 | 0.00 | 0.00 | 60 | 1008.0 |
| 20260505161213 | 62 | 217 | 2.6 | 4.3 | 0.00 | 0.00 | 0.00 | 61 | 1008.0 |
| 20260505161123 | 62 | 215 | 2.6 | 4.3 | 0.00 | 0.00 | 0.00 | 61 | 1008.0 |
| 20260505161018 | 61 | 215 | 2.6 | 3.5 | 0.00 | 0.00 | 0.00 | 61 | 1008.0 |
| 20260505160914 | 61 | 215 | 2.6 | 3.5 | 0.00 | 0.00 | 0.00 | 62 | 1008.0 |
| 20260505160820 | 61 | 212 | 1.7 | 3.5 | 0.00 | 0.00 | 0.00 | 62 | 1008.0 |
| 20260505160737 | 61 | 212 | 0.9 | 3.5 | 0.00 | 0.00 | 0.00 | 62 | 1008.0 |
| 20260505160619 | 60 | 212 | 0.9 | 3.5 | 0.00 | 0.00 | 0.00 | 62 | 1008.1 |
| 20260505160516 | 60 | 212 | 1.7 | 3.5 | 0.00 | 0.00 | 0.00 | 61 | 1008.1 |
| 20260505160427 | 60 | 212 | 1.7 | 3.5 | 0.00 | 0.00 | 0.00 | 62 | 1008.1 |
| 20260505160322 | 60 | 212 | 1.7 | 3.5 | 0.00 | 0.00 | 0.00 | 63 | 1008.1 |
| 20260505160231 | 60 | 210 | 1.7 | 3.5 | 0.00 | 0.00 | 0.00 | 63 | 1008.1 |
| 20260505160126 | 60 | 210 | 1.7 | 3.5 | 0.00 | 0.00 | 0.00 | 63 | 1008.1 |
| 20260505153325 | 55 | 207 | 2.6 | 5.2 | 0.00 | 0.00 | 0.00 | 69 | 1008.1 |
| 20260505153231 | 55 | 203 | 1.7 | 3.5 | 0.00 | 0.00 | 0.00 | 69 | 1008.1 |
| 20260505153131 | 55 | 203 | 2.6 | 3.5 | 0.00 | 0.00 | 0.00 | 70 | 1008.1 |
| 20260505153036 | 54 | 203 | 2.6 | 3.5 | 0.00 | 0.00 | 0.00 | 70 | 1008.1 |
| 20260505152915 | 54 | 203 | 2.6 | 3.5 | 0.00 | 0.00 | 0.00 | 70 | 1008.1 |
| 20260505152839 | 54 | 202 | 1.7 | 3.5 | 0.00 | 0.00 | 0.00 | 70 | 1008.1 |
| 20260505152726 | 54 | 202 | 1.7 | 3.5 | 0.00 | 0.00 | 0.00 | 70 | 1008.1 |
| 20260505152621 | 54 | 202 | 2.6 | 3.5 | 0.00 | 0.00 | 0.00 | 71 | 1008.0 |
| 20260505152547 | 54 | 202 | 1.7 | 3.5 | 0.00 | 0.00 | 0.00 | 71 | 1008.1 |
| 20260505152451 | 54 | 202 | 2.6 | 3.5 | 0.00 | 0.00 | 0.00 | 72 | 1008.1 |
| 20260505152326 | 53 | 202 | 2.6 | 3.5 | 0.00 | 0.00 | 0.00 | 72 | 1008.1 |
| 20260505152221 | 53 | 202 | 2.6 | 3.5 | 0.00 | 0.00 | 0.00 | 73 | 1008.0 |
| 20260505152133 | 53 | 202 | 1.7 | 3.5 | 0.00 | 0.00 | 0.00 | 73 | 1008.0 |
| 20260505152035 | 53 | 202 | 2.6 | 3.5 | 0.00 | 0.00 | 0.00 | 74 | 1008.0 |
| 20260505151933 | 53 | 202 | 2.6 | 3.5 | 0.00 | 0.00 | 0.00 | 74 | 1008.1 |
| 20260505151859 | 53 | 202 | 2.6 | 3.5 | 0.00 | 0.00 | 0.00 | 74 | 1008.1 |
| 20260505151736 | 52 | 202 | 1.7 | 4.3 | 0.00 | 0.00 | 0.00 | 75 | 1008.0 |
| 20260505151639 | 52 | 202 | 1.7 | 4.3 | 0.00 | 0.00 | 0.00 | 75 | 1008.0 |
| 20260505151514 | 52 | 202 | 2.6 | 4.3 | 0.00 | 0.00 | 0.00 | 75 | 1008.0 |
| 20260505151420 | 52 | 201 | 2.6 | 5.2 | 0.00 | 0.00 | 0.00 | 75 | 1008.0 |
| 20260505151321 | 51 | 201 | 1.7 | 5.2 | 0.00 | 0.00 | 0.00 | 76 | 1008.0 |
| 20260505151229 | 51 | 201 | 1.7 | 5.2 | 0.00 | 0.00 | 0.00 | 76 | 1008.0 |
| 20260505151128 | 51 | 201 | 1.7 | 5.2 | 0.00 | 0.00 | 0.00 | 76 | 1008.0 |
| 20260505151024 | 51 | 201 | 2.6 | 5.2 | 0.00 | 0.00 | 0.00 | 77 | 1007.9 |
| 20260505150928 | 51 | 201 | 2.6 | 5.2 | 0.00 | 0.00 | 0.00 | 77 | 1007.9 |
| 20260505150834 | 50 | 200 | 2.6 | 5.2 | 0.00 | 0.00 | 0.00 | 78 | 1007.9 |
| 20260505150732 | 50 | 200 | 2.6 | 5.2 | 0.00 | 0.00 | 0.00 | 78 | 1007.9 |
| 20260505150636 | 50 | 200 | 3.5 | 5.2 | 0.00 | 0.00 | 0.00 | 78 | 1007.9 |
| 20260505150517 | 50 | 196 | 3.5 | 5.2 | 0.00 | 0.00 | 0.00 | 79 | 1007.9 |
| 20260505150422 | 50 | 184 | 2.6 | 5.2 | 0.00 | 0.00 | 0.00 | 79 | 1007.9 |
| 20260505150319 | 49 | 156 | 1.7 | 3.5 | 0.00 | 0.00 | 0.00 | 79 | 1007.9 |
| 20260505150219 | 49 | 156 | 2.6 | 3.5 | 0.00 | 0.00 | 0.00 | 79 | 1007.9 |
| 20260505150123 | 49 | 156 | 1.7 | 3.5 | 0.00 | 0.00 | 0.00 | 80 | 1007.9 |